Wetterdaten: Freitag, 28.01.2022
Datum Zeit Temp. Aussen Temp. o. S. Temp +5cm Feuchte Auss Luftdruck Regen Sonnenschein Regendauer Solar Windben Empfang
28.01.2022 00:00 5,4 C 4,4 C 2,8 C 92 % 1028,4 hPa 0,0 l/m 0 min 0 min 0 W/m 12,9 km/h (3 Bft) 100,00 %
28.01.2022 00:02 5,3 C 4,4 C 2,8 C 92 % 1028,3 hPa 0,0 l/m 0 min 0 min 0 W/m 12,9 km/h (3 Bft) 100,00 %
28.01.2022 00:04 5,3 C 4,4 C 2,8 C 92 % 1028,4 hPa 0,0 l/m 0 min 0 min 0 W/m 12,9 km/h (3 Bft) 97,83 %
28.01.2022 00:08 5,3 C 4,4 C 2,2 C 92 % 1028,3 hPa 0,0 l/m 0 min 0 min 0 W/m 12,9 km/h (3 Bft) 97,92 %
28.01.2022 00:10 5,2 C 4,4 C 2,2 C 92 % 1028,4 hPa 0,0 l/m 0 min 0 min 0 W/m 12,9 km/h (3 Bft) 97,87 %
28.01.2022 00:12 5,2 C 4,4 C 2,2 C 93 % 1028,4 hPa 0,0 l/m 0 min 0 min 0 W/m 12,9 km/h (3 Bft) 95,74 %
28.01.2022 00:14 5,2 C 4,4 C 2,2 C 92 % 1028,4 hPa 0,0 l/m 0 min 0 min 0 W/m 12,9 km/h (3 Bft) 97,83 %
28.01.2022 00:16 5,2 C 4,4 C 2,2 C 92 % 1028,4 hPa 0,0 l/m 0 min 0 min 0 W/m 12,9 km/h (3 Bft) 97,87 %
28.01.2022 00:18 5,2 C 4,4 C 2,2 C 93 % 1028,4 hPa 0,0 l/m 0 min 0 min 0 W/m 16,1 km/h (3 Bft) 95,74 %
28.01.2022 00:20 5,2 C 4,4 C 2,2 C 93 % 1028,5 hPa 0,0 l/m 0 min 0 min 0 W/m 16,1 km/h (3 Bft) 95,74 %
28.01.2022 00:22 5,2 C 4,4 C 2,2 C 93 % 1028,4 hPa 0,0 l/m 0 min 0 min 0 W/m 19,3 km/h (3 Bft) 91,49 %
28.01.2022 00:24 5,1 C 4,4 C 2,2 C 93 % 1028,4 hPa 0,0 l/m 0 min 0 min 0 W/m 12,9 km/h (3 Bft) 95,74 %
28.01.2022 00:26 5,1 C 4,4 C 2,2 C 93 % 1028,4 hPa 0,0 l/m 0 min 0 min 0 W/m 9,7 km/h (2 Bft) 95,65 %
28.01.2022 00:28 5,1 C 4,4 C 2,2 C 93 % 1028,3 hPa 0,0 l/m 0 min 0 min 0 W/m 12,9 km/h (3 Bft) 95,74 %
28.01.2022 00:30 5,1 C 4,4 C 2,2 C 93 % 1028,3 hPa 0,0 l/m 0 min 0 min 0 W/m 12,9 km/h (3 Bft) 93,62 %
28.01.2022 00:32 5,1 C 4,4 C 2,2 C 93 % 1028,3 hPa 0,0 l/m 0 min 0 min 0 W/m 12,9 km/h (3 Bft) 95,74 %
28.01.2022 00:34 5,1 C 4,4 C 2,2 C 93 % 1028,3 hPa 0,0 l/m 0 min 0 min 0 W/m 16,1 km/h (3 Bft) 95,74 %
28.01.2022 00:36 5,1 C 4,4 C 2,2 C 93 % 1028,3 hPa 0,0 l/m 0 min 0 min 0 W/m 16,1 km/h (3 Bft) 95,74 %
28.01.2022 00:38 5,1 C 4,4 C 2,2 C 93 % 1028,3 hPa 0,0 l/m 0 min 0 min 0 W/m 9,7 km/h (2 Bft) 95,65 %
28.01.2022 00:40 5,1 C 4,4 C 2,2 C 93 % 1028,3 hPa 0,0 l/m 0 min 0 min 0 W/m 12,9 km/h (3 Bft) 95,74 %
28.01.2022 00:42 5,1 C 4,4 C 2,2 C 93 % 1028,3 hPa 0,0 l/m 0 min 0 min 0 W/m 16,1 km/h (3 Bft) 93,62 %
28.01.2022 00:44 5,1 C 4,4 C 2,8 C 94 % 1028,3 hPa 0,0 l/m 0 min 0 min 0 W/m 16,1 km/h (3 Bft) 95,74 %
28.01.2022 00:46 5,1 C 4,4 C 2,8 C 94 % 1028,4 hPa 0,0 l/m 0 min 0 min 0 W/m 12,9 km/h (3 Bft) 93,62 %
28.01.2022 00:48 5,1 C 4,4 C 2,8 C 94 % 1028,4 hPa 0,0 l/m 0 min 0 min 0 W/m 12,9 km/h (3 Bft) 93,62 %
28.01.2022 00:50 5,1 C 4,4 C 2,2 C 94 % 1028,3 hPa 0,0 l/m 0 min 0 min 0 W/m 9,7 km/h (2 Bft) 93,48 %
28.01.2022 00:52 5,1 C 4,4 C 2,2 C 94 % 1028,4 hPa 0,0 l/m 0 min 0 min 0 W/m 9,7 km/h (2 Bft) 97,87 %
28.01.2022 00:54 5,1 C 4,4 C 2,2 C 94 % 1028,4 hPa 0,0 l/m 0 min 0 min 0 W/m 12,9 km/h (3 Bft) 93,62 %
28.01.2022 00:56 5,1 C 4,4 C 2,2 C 94 % 1028,5 hPa 0,0 l/m 0 min 0 min 0 W/m 16,1 km/h (3 Bft) 97,87 %
28.01.2022 00:58 5,0 C 4,4 C 2,2 C 94 % 1028,6 hPa 0,0 l/m 0 min 0 min 0 W/m 16,1 km/h (3 Bft) 97,87 %
28.01.2022 01:00 5,0 C 4,4 C 2,2 C 94 % 1028,7 hPa 0,0 l/m 0 min 0 min 0 W/m 12,9 km/h (3 Bft) 97,87 %
28.01.2022 01:02 5,0 C 4,4 C 2,2 C 94 % 1028,8 hPa 0,0 l/m 0 min 0 min 0 W/m 16,1 km/h (3 Bft) 97,87 %
28.01.2022 01:04 4,9 C 4,4 C 2,2 C 94 % 1028,8 hPa 0,0 l/m 0 min 0 min 0 W/m 12,9 km/h (3 Bft) 97,87 %
28.01.2022 01:06 4,9 C 4,4 C 2,2 C 94 % 1028,9 hPa 0,0 l/m 0 min 0 min 0 W/m 22,5 km/h (4 Bft) 97,87 %
28.01.2022 01:08 4,9 C 4,4 C 2,2 C 94 % 1028,9 hPa 0,0 l/m 0 min 0 min 0 W/m 16,1 km/h (3 Bft) 97,87 %
28.01.2022 01:10 4,9 C 4,4 C 2,2 C 94 % 1029,0 hPa 0,0 l/m 0 min 0 min 0 W/m 19,3 km/h (3 Bft) 97,87 %
28.01.2022 01:12 4,9 C 4,4 C 2,2 C 94 % 1029,1 hPa 0,0 l/m 0 min 0 min 0 W/m 12,9 km/h (3 Bft) 95,74 %
28.01.2022 01:14 4,8 C 4,4 C 2,2 C 94 % 1029,0 hPa 0,0 l/m 0 min 0 min 0 W/m 29,0 km/h (5 Bft) 97,83 %
28.01.2022 01:16 4,8 C 3,9 C 2,2 C 94 % 1029,0 hPa 0,0 l/m 0 min 0 min 0 W/m 12,9 km/h (3 Bft) 97,87 %
28.01.2022 01:18 4,8 C 3,9 C 2,2 C 94 % 1029,1 hPa 0,0 l/m 0 min 0 min 0 W/m 9,7 km/h (2 Bft) 97,87 %
28.01.2022 01:20 4,8 C 3,9 C 2,2 C 94 % 1029,1 hPa 0,0 l/m 0 min 0 min 0 W/m 19,3 km/h (3 Bft) 95,74 %
28.01.2022 01:22 4,8 C 3,9 C 2,2 C 94 % 1029,3 hPa 0,0 l/m 0 min 0 min 0 W/m 12,9 km/h (3 Bft) 97,87 %
28.01.2022 01:24 4,8 C 3,9 C 2,2 C 94 % 1029,3 hPa 0,0 l/m 0 min 0 min 0 W/m 12,9 km/h (3 Bft) 97,87 %
28.01.2022 01:26 4,7 C 3,9 C 2,2 C 94 % 1029,4 hPa 0,0 l/m 0 min 0 min 0 W/m 16,1 km/h (3 Bft) 97,83 %
28.01.2022 01:28 4,7 C 3,9 C 2,2 C 94 % 1029,5 hPa 0,0 l/m 0 min 0 min 0 W/m 12,9 km/h (3 Bft) 95,74 %
28.01.2022 01:30 4,7 C 3,9 C 2,2 C 94 % 1029,5 hPa 0,0 l/m 0 min 0 min 0 W/m 16,1 km/h (3 Bft) 97,87 %
28.01.2022 01:32 4,7 C 3,9 C 2,2 C 94 % 1029,6 hPa 0,0 l/m 0 min 0 min 0 W/m 12,9 km/h (3 Bft) 97,87 %
28.01.2022 01:34 4,7 C 3,9 C 2,2 C 94 % 1029,6 hPa 0,0 l/m 0 min 0 min 0 W/m 6,4 km/h (2 Bft) 97,87 %
28.01.2022 01:36 4,6 C 3,9 C 2,2 C 94 % 1029,6 hPa 0,0 l/m 0 min 0 min 0 W/m 12,9 km/h (3 Bft) 97,87 %
28.01.2022 01:38 4,6 C 3,9 C 2,2 C 94 % 1029,7 hPa 0,0 l/m 0 min 0 min 0 W/m 16,1 km/h (3 Bft) 100,00 %
28.01.2022 01:40 4,6 C 3,9 C 2,2 C 94 % 1029,7 hPa 0,0 l/m 0 min 0 min 0 W/m 9,7 km/h (2 Bft) 97,87 %
28.01.2022 01:42 4,6 C 3,9 C 2,2 C 94 % 1029,7 hPa 0,0 l/m 0 min 0 min 0 W/m 9,7 km/h (2 Bft) 100,00 %
28.01.2022 01:44 4,5 C 3,9 C 1,7 C 94 % 1029,8 hPa 0,0 l/m 0 min 0 min 0 W/m 9,7 km/h (2 Bft) 100,00 %
28.01.2022 01:46 4,5 C 3,9 C 1,7 C 94 % 1029,8 hPa 0,0 l/m 0 min 0 min 0 W/m 16,1 km/h (3 Bft) 95,74 %
28.01.2022 01:48 4,4 C 3,3 C 1,7 C 94 % 1029,8 hPa 0,0 l/m 0 min 0 min 0 W/m 9,7 km/h (2 Bft) 100,00 %
28.01.2022 01:50 4,4 C 3,3 C 1,7 C 94 % 1029,8 hPa 0,0 l/m 0 min 0 min 0 W/m 9,7 km/h (2 Bft) 100,00 %
28.01.2022 01:52 4,4 C 3,3 C 1,7 C 94 % 1029,8 hPa 0,0 l/m 0 min 0 min 0 W/m 12,9 km/h (3 Bft) 100,00 %
28.01.2022 01:54 4,4 C 3,3 C 1,7 C 94 % 1029,9 hPa 0,0 l/m 0 min 0 min 0 W/m 6,4 km/h (2 Bft) 95,74 %
28.01.2022 01:56 4,3 C 3,3 C 1,7 C 94 % 1029,9 hPa 0,0 l/m 0 min 0 min 0 W/m 12,9 km/h (3 Bft) 100,00 %
28.01.2022 01:58 4,3 C 3,3 C 1,7 C 94 % 1029,9 hPa 0,0 l/m 0 min 0 min 0 W/m 12,9 km/h (3 Bft) 97,87 %
28.01.2022 02:00 4,3 C 3,3 C 1,7 C 94 % 1029,9 hPa 0,0 l/m 0 min 0 min 0 W/m 12,9 km/h (3 Bft) 97,87 %
28.01.2022 02:02 4,3 C 3,3 C 1,7 C 94 % 1029,9 hPa 0,0 l/m 0 min 0 min 0 W/m 9,7 km/h (2 Bft) 100,00 %
28.01.2022 02:04 4,3 C 3,3 C 1,7 C 94 % 1030,0 hPa 0,0 l/m 0 min 0 min 0 W/m 12,9 km/h (3 Bft) 100,00 %
28.01.2022 02:06 4,3 C 3,3 C 1,7 C 94 % 1030,1 hPa 0,0 l/m 0 min 0 min 0 W/m 9,7 km/h (2 Bft) 97,87 %
28.01.2022 02:08 4,2 C 3,3 C 1,7 C 94 % 1030,1 hPa 0,0 l/m 0 min 0 min 0 W/m 9,7 km/h (2 Bft) 97,87 %
28.01.2022 02:10 4,2 C 3,3 C 1,7 C 94 % 1030,2 hPa 0,0 l/m 0 min 0 min 0 W/m 6,4 km/h (2 Bft) 97,83 %
28.01.2022 02:12 4,2 C 3,3 C 1,7 C 94 % 1030,2 hPa 0,0 l/m 0 min 0 min 0 W/m 9,7 km/h (2 Bft) 97,87 %
28.01.2022 02:14 4,2 C 3,3 C 1,7 C 94 % 1030,2 hPa 0,0 l/m 0 min 0 min 0 W/m 6,4 km/h (2 Bft) 97,87 %
28.01.2022 02:16 4,2 C 3,3 C 1,7 C 94 % 1030,2 hPa 0,0 l/m 0 min 0 min 0 W/m 6,4 km/h (2 Bft) 97,87 %
28.01.2022 02:18 4,1 C 3,3 C 1,7 C 94 % 1030,3 hPa 0,0 l/m 0 min 0 min 0 W/m 19,3 km/h (3 Bft) 95,74 %
28.01.2022 02:20 4,1 C 3,3 C 1,7 C 94 % 1030,3 hPa 0,0 l/m 0 min 0 min 0 W/m 6,4 km/h (2 Bft) 95,74 %
28.01.2022 02:22 4,1 C 3,3 C 1,7 C 94 % 1030,2 hPa 0,0 l/m 0 min 0 min 0 W/m 9,7 km/h (2 Bft) 97,83 %
28.01.2022 02:24 4,1 C 3,3 C 1,7 C 94 % 1030,3 hPa 0,0 l/m 0 min 0 min 0 W/m 9,7 km/h (2 Bft) 95,74 %
28.01.2022 02:26 4,1 C 3,3 C 1,7 C 94 % 1030,3 hPa 0,0 l/m 0 min 0 min 0 W/m 9,7 km/h (2 Bft) 97,87 %
28.01.2022 02:28 4,0 C 3,3 C 1,7 C 94 % 1030,2 hPa 0,0 l/m 0 min 0 min 0 W/m 6,4 km/h (2 Bft) 93,62 %
28.01.2022 02:30 4,0 C 3,3 C 1,7 C 94 % 1030,2 hPa 0,0 l/m 0 min 0 min 0 W/m 12,9 km/h (3 Bft) 97,87 %
28.01.2022 02:32 3,9 C 3,3 C 1,7 C 94 % 1030,3 hPa 0,0 l/m 0 min 0 min 0 W/m 12,9 km/h (3 Bft) 97,87 %
28.01.2022 02:34 3,9 C 3,3 C 1,7 C 94 % 1030,3 hPa 0,0 l/m 0 min 0 min 0 W/m 9,7 km/h (2 Bft) 95,65 %
28.01.2022 02:36 3,9 C 3,3 C 1,7 C 94 % 1030,3 hPa 0,0 l/m 0 min 0 min 0 W/m 9,7 km/h (2 Bft) 95,74 %
28.01.2022 02:38 3,9 C 3,3 C 1,7 C 94 % 1030,4 hPa 0,0 l/m 0 min 0 min 0 W/m 16,1 km/h (3 Bft) 95,74 %
28.01.2022 02:40 3,9 C 3,3 C 1,7 C 94 % 1030,3 hPa 0,0 l/m 0 min 0 min 0 W/m 9,7 km/h (2 Bft) 95,74 %
28.01.2022 02:42 3,8 C 3,3 C 1,7 C 94 % 1030,3 hPa 0,0 l/m 0 min 0 min 0 W/m 12,9 km/h (3 Bft) 93,62 %
28.01.2022 02:44 3,8 C 3,3 C 1,7 C 94 % 1030,3 hPa 0,0 l/m 0 min 0 min 0 W/m 12,9 km/h (3 Bft) 95,74 %
28.01.2022 02:46 3,8 C 3,3 C 1,7 C 94 % 1030,4 hPa 0,0 l/m 0 min 0 min 0 W/m 12,9 km/h (3 Bft) 95,65 %
28.01.2022 02:48 3,8 C 3,3 C 1,1 C 94 % 1030,4 hPa 0,0 l/m 0 min 0 min 0 W/m 9,7 km/h (2 Bft) 97,87 %
28.01.2022 02:50 3,8 C 2,8 C 1,1 C 94 % 1030,4 hPa 0,0 l/m 0 min 0 min 0 W/m 6,4 km/h (2 Bft) 97,87 %
28.01.2022 02:52 3,8 C 2,8 C 1,1 C 94 % 1030,3 hPa 0,0 l/m 0 min 0 min 0 W/m 12,9 km/h (3 Bft) 97,87 %
28.01.2022 02:54 3,7 C 2,8 C 1,1 C 94 % 1030,4 hPa 0,0 l/m 0 min 0 min 0 W/m 9,7 km/h (2 Bft) 97,87 %
28.01.2022 02:56 3,7 C 2,8 C 1,1 C 94 % 1030,4 hPa 0,0 l/m 0 min 0 min 0 W/m 9,7 km/h (2 Bft) 97,87 %
28.01.2022 02:58 3,7 C 2,8 C 1,1 C 94 % 1030,4 hPa 0,0 l/m 0 min 0 min 0 W/m 9,7 km/h (2 Bft) 97,83 %
28.01.2022 03:00 3,7 C 2,8 C 1,1 C 94 % 1030,4 hPa 0,0 l/m 0 min 0 min 0 W/m 12,9 km/h (3 Bft) 97,87 %
28.01.2022 03:02 3,7 C 2,8 C 1,1 C 94 % 1030,4 hPa 0,0 l/m 0 min 0 min 0 W/m 9,7 km/h (2 Bft) 97,87 %
28.01.2022 03:04 3,7 C 3,3 C 1,1 C 94 % 1030,4 hPa 0,0 l/m 0 min 0 min 0 W/m 9,7 km/h (2 Bft) 97,87 %
28.01.2022 03:06 3,7 C 3,3 C 1,1 C 94 % 1030,5 hPa 0,0 l/m 0 min 0 min 0 W/m 12,9 km/h (3 Bft) 97,87 %
28.01.2022 03:08 3,7 C 3,3 C 1,1 C 94 % 1030,5 hPa 0,0 l/m 0 min 0 min 0 W/m 9,7 km/h (2 Bft) 97,87 %
28.01.2022 03:10 3,7 C 2,8 C 1,1 C 94 % 1030,5 hPa 0,0 l/m 0 min 0 min 0 W/m 12,9 km/h (3 Bft) 97,83 %
28.01.2022 03:12 3,7 C 3,3 C 1,1 C 94 % 1030,5 hPa 0,0 l/m 0 min 0 min 0 W/m 12,9 km/h (3 Bft) 97,87 %
28.01.2022 03:14 3,7 C 3,3 C 1,1 C 94 % 1030,5 hPa 0,0 l/m 0 min 0 min 0 W/m 12,9 km/h (3 Bft) 100,00 %
28.01.2022 03:16 3,7 C 3,3 C 1,1 C 94 % 1030,5 hPa 0,0 l/m 0 min 0 min 0 W/m 12,9 km/h (3 Bft) 100,00 %
28.01.2022 03:18 3,7 C 3,3 C 1,1 C 94 % 1030,6 hPa 0,0 l/m 0 min 0 min 0 W/m 9,7 km/h (2 Bft) 100,00 %
28.01.2022 03:20 3,7 C 3,3 C 1,1 C 94 % 1030,5 hPa 0,0 l/m 0 min 0 min 0 W/m 9,7 km/h (2 Bft) 100,00 %
28.01.2022 03:22 3,7 C 3,3 C 1,1 C 94 % 1030,6 hPa 0,0 l/m 0 min 0 min 0 W/m 12,9 km/h (3 Bft) 100,00 %
28.01.2022 03:24 3,7 C 3,3 C 1,1 C 94 % 1030,6 hPa 0,0 l/m 0 min 0 min 0 W/m 12,9 km/h (3 Bft) 100,00 %
28.01.2022 03:26 3,7 C 3,3 C 1,1 C 94 % 1030,6 hPa 0,0 l/m 0 min 0 min 0 W/m 12,9 km/h (3 Bft) 100,00 %
28.01.2022 03:28 3,7 C 3,3 C 1,1 C 94 % 1030,7 hPa 0,0 l/m 0 min 0 min 0 W/m 9,7 km/h (2 Bft) 100,00 %
28.01.2022 03:30 3,7 C 3,3 C 1,1 C 94 % 1030,7 hPa 0,0 l/m 0 min 0 min 0 W/m 9,7 km/h (2 Bft) 100,00 %
28.01.2022 03:32 3,7 C 2,8 C 1,1 C 94 % 1030,7 hPa 0,0 l/m 0 min 0 min 0 W/m 6,4 km/h (2 Bft) 100,00 %
28.01.2022 03:34 3,7 C 2,8 C 1,1 C 94 % 1030,9 hPa 0,0 l/m 0 min 0 min 0 W/m 9,7 km/h (2 Bft) 100,00 %
28.01.2022 03:36 3,6 C 2,8 C 1,1 C 94 % 1030,9 hPa 0,0 l/m 0 min 0 min 0 W/m 6,4 km/h (2 Bft) 100,00 %
28.01.2022 03:38 3,6 C 2,8 C 1,1 C 94 % 1030,9 hPa 0,0 l/m 0 min 0 min 0 W/m 12,9 km/h (3 Bft) 100,00 %
28.01.2022 03:40 3,7 C 2,8 C 1,1 C 94 % 1031,0 hPa 0,0 l/m 0 min 0 min 0 W/m 16,1 km/h (3 Bft) 100,00 %
28.01.2022 03:42 3,7 C 2,8 C 1,1 C 94 % 1030,8 hPa 0,0 l/m 0 min 0 min 0 W/m 12,9 km/h (3 Bft) 97,87 %
28.01.2022 03:44 3,7 C 2,8 C 1,1 C 94 % 1030,9 hPa 0,0 l/m 0 min 0 min 0 W/m 12,9 km/h (3 Bft) 97,83 %
28.01.2022 03:46 3,7 C 2,8 C 1,1 C 94 % 1031,0 hPa 0,0 l/m 0 min 0 min 0 W/m 6,4 km/h (2 Bft) 97,87 %
28.01.2022 03:48 3,7 C 2,8 C 1,1 C 94 % 1031,0 hPa 0,0 l/m 0 min 0 min 0 W/m 12,9 km/h (3 Bft) 97,87 %
28.01.2022 03:50 3,6 C 2,8 C 1,1 C 94 % 1031,0 hPa 0,0 l/m 0 min 0 min 0 W/m 12,9 km/h (3 Bft) 100,00 %
28.01.2022 03:52 3,6 C 2,8 C 1,1 C 93 % 1030,9 hPa 0,0 l/m 0 min 0 min 0 W/m 6,4 km/h (2 Bft) 100,00 %
28.01.2022 03:54 3,6 C 2,8 C 1,1 C 93 % 1031,0 hPa 0,0 l/m 0 min 0 min 0 W/m 6,4 km/h (2 Bft) 95,74 %
28.01.2022 03:56 3,6 C 2,8 C 1,1 C 93 % 1031,0 hPa 0,0 l/m 0 min 0 min 0 W/m 12,9 km/h (3 Bft) 97,83 %
28.01.2022 03:58 3,6 C 2,8 C 1,1 C 93 % 1030,9 hPa 0,0 l/m 0 min 0 min 0 W/m 9,7 km/h (2 Bft) 97,87 %
28.01.2022 04:00 3,6 C 2,8 C 1,1 C 93 % 1030,9 hPa 0,0 l/m 0 min 0 min 0 W/m 12,9 km/h (3 Bft) 97,87 %
28.01.2022 04:02 3,6 C 2,8 C 1,1 C 93 % 1031,0 hPa 0,0 l/m 0 min 0 min 0 W/m 9,7 km/h (2 Bft) 100,00 %
28.01.2022 04:04 3,6 C 2,8 C 1,1 C 93 % 1031,0 hPa 0,0 l/m 0 min 0 min 0 W/m 12,9 km/h (3 Bft) 95,74 %
28.01.2022 04:06 3,6 C 2,8 C 1,1 C 93 % 1031,0 hPa 0,0 l/m 0 min 0 min 0 W/m 12,9 km/h (3 Bft) 95,74 %
28.01.2022 04:08 3,6 C 2,8 C 1,1 C 93 % 1030,9 hPa 0,0 l/m 0 min 0 min 0 W/m 12,9 km/h (3 Bft) 91,49 %
28.01.2022 04:10 3,6 C 2,8 C 1,1 C 93 % 1031,0 hPa 0,0 l/m 0 min 0 min 0 W/m 12,9 km/h (3 Bft) 95,74 %
28.01.2022 04:12 3,6 C 2,8 C 1,1 C 93 % 1031,1 hPa 0,0 l/m 0 min 0 min 0 W/m 12,9 km/h (3 Bft) 93,48 %
28.01.2022 04:14 3,5 C 2,8 C 1,1 C 93 % 1031,2 hPa 0,0 l/m 0 min 0 min 0 W/m 9,7 km/h (2 Bft) 95,74 %
28.01.2022 04:16 3,5 C 2,8 C 1,1 C 93 % 1031,1 hPa 0,0 l/m 0 min 0 min 0 W/m 6,4 km/h (2 Bft) 93,62 %
28.01.2022 04:18 3,5 C 2,8 C 1,1 C 93 % 1031,1 hPa 0,0 l/m 0 min 0 min 0 W/m 9,7 km/h (2 Bft) 95,74 %
28.01.2022 04:20 3,5 C 2,8 C 1,1 C 93 % 1031,1 hPa 0,0 l/m 0 min 0 min 0 W/m 9,7 km/h (2 Bft) 93,62 %
28.01.2022 04:22 3,4 C 2,8 C 1,1 C 94 % 1031,1 hPa 0,0 l/m 0 min 0 min 0 W/m 12,9 km/h (3 Bft) 95,74 %
28.01.2022 04:24 3,4 C 2,8 C 1,1 C 94 % 1031,2 hPa 0,0 l/m 0 min 0 min 0 W/m 6,4 km/h (2 Bft) 93,48 %
28.01.2022 04:26 3,4 C 2,8 C 1,1 C 94 % 1031,3 hPa 0,0 l/m 0 min 0 min 0 W/m 12,9 km/h (3 Bft) 95,74 %
28.01.2022 04:28 3,4 C 2,8 C 1,1 C 94 % 1031,3 hPa 0,0 l/m 0 min 0 min 0 W/m 9,7 km/h (2 Bft) 95,74 %
28.01.2022 04:30 3,4 C 2,8 C 1,1 C 94 % 1031,4 hPa 0,0 l/m 0 min 0 min 0 W/m 16,1 km/h (3 Bft) 97,87 %
28.01.2022 04:32 3,4 C 2,8 C 1,1 C 94 % 1031,3 hPa 0,0 l/m 0 min 0 min 0 W/m 9,7 km/h (2 Bft) 97,92 %
28.01.2022 04:34 3,4 C 2,8 C 1,1 C 94 % 1031,4 hPa 0,0 l/m 0 min 0 min 0 W/m 12,9 km/h (3 Bft) 97,87 %
28.01.2022 04:36 3,4 C 2,8 C 1,1 C 94 % 1031,4 hPa 0,0 l/m 0 min 0 min 0 W/m 12,9 km/h (3 Bft) 97,83 %
28.01.2022 04:38 3,4 C 2,8 C 1,1 C 94 % 1031,5 hPa 0,0 l/m 0 min 0 min 0 W/m 12,9 km/h (3 Bft) 97,87 %
28.01.2022 04:40 3,4 C 2,8 C 1,1 C 94 % 1031,5 hPa 0,0 l/m 0 min 0 min 0 W/m 6,4 km/h (2 Bft) 55,56 %
28.01.2022 04:42 3,4 C 2,8 C 1,1 C 94 % 1031,6 hPa 0,0 l/m 0 min 0 min 0 W/m 6,4 km/h (2 Bft) 89,58 %
28.01.2022 04:44 3,4 C 2,8 C 1,1 C 94 % 1031,6 hPa 0,0 l/m 0 min 0 min 0 W/m 6,4 km/h (2 Bft) 93,62 %
28.01.2022 04:46 3,4 C 2,8 C 1,1 C 94 % 1031,6 hPa 0,0 l/m 0 min 0 min 0 W/m 6,4 km/h (2 Bft) 97,87 %
28.01.2022 04:48 3,4 C 2,8 C 1,1 C 94 % 1031,6 hPa 0,0 l/m 0 min 0 min 0 W/m 6,4 km/h (2 Bft) 97,83 %
28.01.2022 04:50 3,4 C 2,8 C 1,1 C 94 % 1031,7 hPa 0,0 l/m 0 min 0 min 0 W/m 9,7 km/h (2 Bft) 97,87 %
28.01.2022 04:52 3,3 C 2,8 C 1,1 C 94 % 1031,7 hPa 0,0 l/m 0 min 0 min 0 W/m 9,7 km/h (2 Bft) 95,74 %
28.01.2022 04:54 3,3 C 2,8 C 1,1 C 94 % 1031,7 hPa 0,0 l/m 0 min 0 min 0 W/m 12,9 km/h (3 Bft) 93,62 %
28.01.2022 04:56 3,3 C 2,8 C 1,1 C 94 % 1031,7 hPa 0,0 l/m 0 min 0 min 0 W/m 12,9 km/h (3 Bft) 97,87 %
28.01.2022 04:58 3,3 C 2,8 C 1,1 C 94 % 1031,6 hPa 0,0 l/m 0 min 0 min 0 W/m 12,9 km/h (3 Bft) 97,83 %
28.01.2022 05:00 3,3 C 2,8 C 1,1 C 94 % 1031,7 hPa 0,0 l/m 0 min 0 min 0 W/m 9,7 km/h (2 Bft) 95,74 %
28.01.2022 05:02 3,3 C 2,8 C 1,1 C 94 % 1031,7 hPa 0,0 l/m 0 min 0 min 0 W/m 6,4 km/h (2 Bft) 95,83 %
28.01.2022 05:04 3,3 C 2,8 C 1,1 C 94 % 1031,7 hPa 0,0 l/m 0 min 0 min 0 W/m 6,4 km/h (2 Bft) 97,87 %
28.01.2022 05:06 3,3 C 2,8 C 1,1 C 94 % 1031,8 hPa 0,0 l/m 0 min 0 min 0 W/m 9,7 km/h (2 Bft) 97,87 %
28.01.2022 05:08 3,3 C 2,8 C 1,1 C 94 % 1031,8 hPa 0,0 l/m 0 min 0 min 0 W/m 9,7 km/h (2 Bft) 97,87 %
28.01.2022 05:10 3,3 C 2,8 C 1,1 C 94 % 1031,9 hPa 0,0 l/m 0 min 0 min 0 W/m 6,4 km/h (2 Bft) 97,83 %
28.01.2022 05:12 3,3 C 2,8 C 1,1 C 94 % 1031,9 hPa 0,0 l/m 0 min 0 min 0 W/m 9,7 km/h (2 Bft) 95,74 %
28.01.2022 05:14 3,3 C 2,8 C 1,1 C 94 % 1031,9 hPa 0,0 l/m 0 min 0 min 0 W/m 16,1 km/h (3 Bft) 97,87 %
28.01.2022 05:16 3,3 C 2,8 C 1,1 C 94 % 1032,0 hPa 0,0 l/m 0 min 0 min 0 W/m 6,4 km/h (2 Bft) 97,92 %
28.01.2022 05:18 3,3 C 2,8 C 1,1 C 94 % 1032,0 hPa 0,0 l/m 0 min 0 min 0 W/m 12,9 km/h (3 Bft) 97,87 %
28.01.2022 05:20 3,3 C 2,8 C 1,1 C 94 % 1031,9 hPa 0,0 l/m 0 min 0 min 0 W/m 3,2 km/h (1 Bft) 97,87 %
28.01.2022 05:22 3,3 C 2,8 C 1,1 C 94 % 1031,9 hPa 0,0 l/m 0 min 0 min 0 W/m 6,4 km/h (2 Bft) 95,65 %
28.01.2022 05:24 3,3 C 2,8 C 1,1 C 94 % 1032,0 hPa 0,0 l/m 0 min 0 min 0 W/m 6,4 km/h (2 Bft) 97,87 %
28.01.2022 05:26 3,3 C 2,8 C 1,1 C 94 % 1032,0 hPa 0,0 l/m 0 min 0 min 0 W/m 6,4 km/h (2 Bft) 97,87 %
28.01.2022 05:28 3,3 C 2,8 C 1,1 C 94 % 1032,0 hPa 0,0 l/m 0 min 0 min 0 W/m 3,2 km/h (1 Bft) 97,87 %
28.01.2022 05:30 3,3 C 2,8 C 1,1 C 94 % 1032,1 hPa 0,0 l/m 0 min 0 min 0 W/m 6,4 km/h (2 Bft) 100,00 %
28.01.2022 05:32 3,3 C 2,8 C 1,1 C 94 % 1032,1 hPa 0,0 l/m 0 min 0 min 0 W/m 9,7 km/h (2 Bft) 97,87 %
28.01.2022 05:34 3,3 C 2,8 C 1,1 C 94 % 1032,1 hPa 0,0 l/m 0 min 0 min 0 W/m 6,4 km/h (2 Bft) 100,00 %
28.01.2022 05:36 3,3 C 2,8 C 1,1 C 94 % 1032,1 hPa 0,0 l/m 0 min 0 min 0 W/m 6,4 km/h (2 Bft) 97,87 %
28.01.2022 05:38 3,3 C 2,8 C 1,1 C 94 % 1032,2 hPa 0,0 l/m 0 min 0 min 0 W/m 9,7 km/h (2 Bft) 97,87 %
28.01.2022 05:40 3,3 C 2,8 C 1,1 C 94 % 1032,1 hPa 0,0 l/m 0 min 0 min 0 W/m 3,2 km/h (1 Bft) 100,00 %
28.01.2022 05:42 3,3 C 2,2 C 0,6 C 94 % 1032,2 hPa 0,0 l/m 0 min 0 min 0 W/m 6,4 km/h (2 Bft) 97,87 %
28.01.2022 05:44 3,3 C 2,2 C 0,6 C 94 % 1032,1 hPa 0,0 l/m 0 min 0 min 0 W/m 6,4 km/h (2 Bft) 100,00 %
28.01.2022 05:46 3,3 C 2,2 C 0,6 C 94 % 1032,1 hPa 0,0 l/m 0 min 0 min 0 W/m 3,2 km/h (1 Bft) 97,83 %
28.01.2022 05:48 3,2 C 2,2 C 0,6 C 94 % 1032,0 hPa 0,0 l/m 0 min 0 min 0 W/m 3,2 km/h (1 Bft) 95,74 %
28.01.2022 05:50 3,2 C 2,2 C 0,6 C 94 % 1032,1 hPa 0,0 l/m 0 min 0 min 0 W/m 3,2 km/h (1 Bft) 97,87 %
28.01.2022 05:52 3,2 C 2,2 C 0,6 C 94 % 1032,2 hPa 0,0 l/m 0 min 0 min 0 W/m 3,2 km/h (1 Bft) 97,87 %
28.01.2022 05:54 3,1 C 2,2 C 0,6 C 94 % 1032,2 hPa 0,0 l/m 0 min 0 min 0 W/m 6,4 km/h (2 Bft) 97,87 %
28.01.2022 05:56 3,1 C 2,2 C 0,6 C 94 % 1032,3 hPa 0,0 l/m 0 min 0 min 0 W/m 3,2 km/h (1 Bft) 97,87 %
28.01.2022 05:58 3,1 C 2,2 C 0,6 C 94 % 1032,3 hPa 0,0 l/m 0 min 0 min 0 W/m 3,2 km/h (1 Bft) 97,83 %
28.01.2022 06:00 3,1 C 2,2 C 0,6 C 94 % 1032,3 hPa 0,0 l/m 0 min 0 min 0 W/m 3,2 km/h (1 Bft) 97,87 %
28.01.2022 06:02 3,1 C 2,2 C 0,6 C 94 % 1032,4 hPa 0,0 l/m 0 min 0 min 0 W/m 3,2 km/h (1 Bft) 95,83 %
28.01.2022 06:04 3,1 C 2,2 C 0,6 C 94 % 1032,4 hPa 0,0 l/m 0 min 0 min 0 W/m 6,4 km/h (2 Bft) 95,74 %
28.01.2022 06:08 3,1 C 2,2 C 0,6 C 94 % 1032,4 hPa 0,0 l/m 0 min 0 min 0 W/m 6,4 km/h (2 Bft) 96,81 %
28.01.2022 06:10 3,1 C 2,2 C 0,6 C 94 % 1032,5 hPa 0,0 l/m 0 min 0 min 0 W/m 9,7 km/h (2 Bft) 97,87 %
28.01.2022 06:12 3,1 C 2,2 C 0,6 C 94 % 1032,4 hPa 0,0 l/m 0 min 0 min 0 W/m 9,7 km/h (2 Bft) 95,74 %
28.01.2022 06:14 3,1 C 2,2 C 0,6 C 94 % 1032,4 hPa 0,0 l/m 0 min 0 min 0 W/m 6,4 km/h (2 Bft) 97,83 %
28.01.2022 06:16 3,1 C 2,2 C 0,6 C 94 % 1032,4 hPa 0,0 l/m 0 min 0 min 0 W/m 3,2 km/h (1 Bft) 97,87 %
28.01.2022 06:18 3,1 C 2,2 C 0,6 C 94 % 1032,5 hPa 0,0 l/m 0 min 0 min 0 W/m 9,7 km/h (2 Bft) 100,00 %
28.01.2022 06:20 3,1 C 2,2 C 0,6 C 94 % 1032,6 hPa 0,0 l/m 0 min 0 min 0 W/m 6,4 km/h (2 Bft) 100,00 %
28.01.2022 06:22 3,0 C 2,2 C 0,6 C 94 % 1032,6 hPa 0,0 l/m 0 min 0 min 0 W/m 6,4 km/h (2 Bft) 100,00 %
28.01.2022 06:24 3,0 C 2,2 C 0,6 C 94 % 1032,6 hPa 0,0 l/m 0 min 0 min 0 W/m 6,4 km/h (2 Bft) 97,87 %
28.01.2022 06:26 3,0 C 2,2 C 0,6 C 94 % 1032,6 hPa 0,0 l/m 0 min 0 min 0 W/m 3,2 km/h (1 Bft) 100,00 %
28.01.2022 06:28 2,9 C 2,2 C 0,6 C 94 % 1032,7 hPa 0,0 l/m 0 min 0 min 0 W/m 6,4 km/h (2 Bft) 100,00 %
28.01.2022 06:30 2,9 C 2,2 C 0,6 C 94 % 1032,7 hPa 0,0 l/m 0 min 0 min 0 W/m 6,4 km/h (2 Bft) 100,00 %
28.01.2022 06:32 2,9 C 2,2 C 0,6 C 94 % 1032,7 hPa 0,0 l/m 0 min 0 min 0 W/m 6,4 km/h (2 Bft) 97,14 %
28.01.2022 06:34 2,9 C 2,2 C 0,6 C 94 % 1032,7 hPa 0,0 l/m 0 min 0 min 0 W/m 6,4 km/h (2 Bft) 100,00 %
28.01.2022 06:36 2,8 C 2,2 C 0,6 C 94 % 1032,7 hPa 0,0 l/m 0 min 0 min 0 W/m 6,4 km/h (2 Bft) 100,00 %
28.01.2022 06:38 2,8 C 2,2 C 0,6 C 94 % 1032,7 hPa 0,0 l/m 0 min 0 min 0 W/m 6,4 km/h (2 Bft) 100,00 %
28.01.2022 06:40 2,8 C 2,2 C 0,6 C 94 % 1032,8 hPa 0,0 l/m 0 min 0 min 0 W/m 3,2 km/h (1 Bft) 100,00 %
28.01.2022 06:42 2,8 C 2,2 C 0,6 C 94 % 1032,8 hPa 0,0 l/m 0 min 0 min 0 W/m 3,2 km/h (1 Bft) 97,83 %
28.01.2022 06:44 2,8 C 2,2 C 0,6 C 94 % 1032,9 hPa 0,0 l/m 0 min 0 min 0 W/m 0,0 km/h (0 Bft) 100,00 %
28.01.2022 06:46 2,8 C 2,2 C 0,6 C 94 % 1032,9 hPa 0,0 l/m 0 min 0 min 0 W/m 6,4 km/h (2 Bft) 100,00 %
28.01.2022 06:48 2,8 C 2,2 C 0,6 C 94 % 1032,9 hPa 0,0 l/m 0 min 0 min 0 W/m 6,4 km/h (2 Bft) 100,00 %
28.01.2022 06:50 2,8 C 2,2 C 0,6 C 94 % 1032,9 hPa 0,0 l/m 0 min 0 min 0 W/m 6,4 km/h (2 Bft) 97,87 %
28.01.2022 06:52 2,8 C 2,2 C 0,6 C 94 % 1032,9 hPa 0,0 l/m 0 min 0 min 0 W/m 6,4 km/h (2 Bft) 95,74 %
28.01.2022 06:54 2,8 C 2,2 C 0,6 C 94 % 1033,0 hPa 0,0 l/m 0 min 0 min 0 W/m 6,4 km/h (2 Bft) 100,00 %
28.01.2022 06:56 2,8 C 2,2 C 0,6 C 94 % 1032,9 hPa 0,0 l/m 0 min 0 min 0 W/m 3,2 km/h (1 Bft) 97,87 %
28.01.2022 06:58 2,8 C 2,2 C 0,6 C 95 % 1032,9 hPa 0,0 l/m 0 min 0 min 0 W/m 3,2 km/h (1 Bft) 97,87 %
28.01.2022 07:00 2,8 C 2,2 C 0,6 C 95 % 1032,9 hPa 0,0 l/m 0 min 0 min 0 W/m 6,4 km/h (2 Bft) 97,87 %
28.01.2022 07:02 2,8 C 2,2 C 0,6 C 95 % 1033,0 hPa 0,0 l/m 0 min 0 min 0 W/m 3,2 km/h (1 Bft) 97,87 %
28.01.2022 07:04 2,8 C 2,2 C 0,6 C 95 % 1033,1 hPa 0,0 l/m 0 min 0 min 0 W/m 6,4 km/h (2 Bft) 95,65 %
28.01.2022 07:06 2,8 C 2,2 C 0,6 C 95 % 1033,1 hPa 0,0 l/m 0 min 0 min 0 W/m 6,4 km/h (2 Bft) 97,87 %
28.01.2022 07:08 2,8 C 2,2 C 0,6 C 95 % 1033,2 hPa 0,0 l/m 0 min 0 min 0 W/m 6,4 km/h (2 Bft) 97,87 %
28.01.2022 07:10 2,8 C 2,2 C 0,6 C 95 % 1033,3 hPa 0,0 l/m 0 min 0 min 0 W/m 3,2 km/h (1 Bft) 97,87 %
28.01.2022 07:12 2,8 C 2,2 C 0,6 C 95 % 1033,3 hPa 0,0 l/m 0 min 0 min 0 W/m 3,2 km/h (1 Bft) 95,74 %
28.01.2022 07:14 2,8 C 1,7 C 0,6 C 95 % 1033,4 hPa 0,0 l/m 0 min 0 min 0 W/m 3,2 km/h (1 Bft) 93,62 %
28.01.2022 07:16 2,8 C 1,7 C 0,0 C 95 % 1033,5 hPa 0,0 l/m 0 min 0 min 0 W/m 3,2 km/h (1 Bft) 95,74 %
28.01.2022 07:18 2,8 C 1,7 C 0,0 C 95 % 1033,5 hPa 0,0 l/m 0 min 0 min 0 W/m 3,2 km/h (1 Bft) 93,48 %
28.01.2022 07:20 2,7 C 1,7 C 0,0 C 95 % 1033,5 hPa 0,0 l/m 0 min 0 min 0 W/m 3,2 km/h (1 Bft) 93,62 %
28.01.2022 07:22 2,7 C 1,7 C 0,0 C 95 % 1033,5 hPa 0,0 l/m 0 min 0 min 0 W/m 3,2 km/h (1 Bft) 95,74 %
28.01.2022 07:24 2,7 C 1,7 C 0,0 C 95 % 1033,5 hPa 0,0 l/m 0 min 0 min 0 W/m 3,2 km/h (1 Bft) 95,74 %
28.01.2022 07:26 2,7 C 1,7 C 0,0 C 95 % 1033,5 hPa 0,0 l/m 0 min 0 min 0 W/m 3,2 km/h (1 Bft) 95,74 %
28.01.2022 07:28 2,7 C 1,7 C 0,0 C 95 % 1033,5 hPa 0,0 l/m 0 min 0 min 0 W/m 6,4 km/h (2 Bft) 95,65 %
28.01.2022 07:30 2,7 C 1,7 C 0,6 C 95 % 1033,5 hPa 0,0 l/m 0 min 0 min 0 W/m 6,4 km/h (2 Bft) 93,62 %
28.01.2022 07:32 2,7 C 2,2 C 0,6 C 95 % 1033,5 hPa 0,0 l/m 0 min 0 min 0 W/m 6,4 km/h (2 Bft) 95,74 %
28.01.2022 07:34 2,7 C 2,2 C 0,6 C 95 % 1033,7 hPa 0,0 l/m 0 min 0 min 0 W/m 9,7 km/h (2 Bft) 93,62 %
28.01.2022 07:36 2,7 C 2,2 C 0,6 C 95 % 1033,6 hPa 0,0 l/m 0 min 0 min 0 W/m 6,4 km/h (2 Bft) 93,62 %
28.01.2022 07:38 2,8 C 2,2 C 0,6 C 95 % 1033,6 hPa 0,0 l/m 0 min 0 min 0 W/m 6,4 km/h (2 Bft) 91,49 %
28.01.2022 07:40 2,8 C 2,2 C 0,6 C 95 % 1033,6 hPa 0,0 l/m 0 min 0 min 0 W/m 9,7 km/h (2 Bft) 93,48 %
28.01.2022 07:42 2,8 C 2,2 C 0,6 C 95 % 1033,6 hPa 0,0 l/m 0 min 0 min 0 W/m 6,4 km/h (2 Bft) 95,74 %
28.01.2022 07:44 2,9 C 2,2 C 0,6 C 95 % 1033,6 hPa 0,0 l/m 0 min 0 min 0 W/m 3,2 km/h (1 Bft) 95,74 %
28.01.2022 07:46 2,9 C 2,2 C 0,6 C 95 % 1033,7 hPa 0,0 l/m 0 min 0 min 0 W/m 6,4 km/h (2 Bft) 95,74 %
28.01.2022 07:48 2,9 C 2,2 C 0,6 C 95 % 1033,7 hPa 0,0 l/m 0 min 0 min 0 W/m 6,4 km/h (2 Bft) 95,74 %
28.01.2022 07:50 2,9 C 2,2 C 0,6 C 95 % 1033,7 hPa 0,0 l/m 0 min 0 min 0 W/m 6,4 km/h (2 Bft) 95,74 %
28.01.2022 07:52 2,9 C 2,2 C 0,6 C 96 % 1033,7 hPa 0,0 l/m 0 min 0 min 0 W/m 9,7 km/h (2 Bft) 95,65 %
28.01.2022 07:54 2,9 C 2,2 C 0,6 C 96 % 1033,8 hPa 0,0 l/m 0 min 0 min 0 W/m 6,4 km/h (2 Bft) 95,74 %
28.01.2022 07:56 2,9 C 2,2 C 0,6 C 96 % 1033,8 hPa 0,0 l/m 0 min 0 min 0 W/m 6,4 km/h (2 Bft) 93,62 %
28.01.2022 07:58 2,9 C 2,2 C 0,6 C 96 % 1033,9 hPa 0,0 l/m 0 min 0 min 0 W/m 6,4 km/h (2 Bft) 95,74 %
28.01.2022 08:00 2,9 C 2,2 C 0,6 C 96 % 1033,9 hPa 0,0 l/m 0 min 0 min 0 W/m 6,4 km/h (2 Bft) 95,74 %
28.01.2022 08:02 2,9 C 2,2 C 0,6 C 96 % 1034,0 hPa 0,0 l/m 0 min 0 min 0 W/m 6,4 km/h (2 Bft) 93,62 %
28.01.2022 08:04 2,9 C 2,2 C 0,6 C 96 % 1033,9 hPa 0,0 l/m 0 min 0 min 0 W/m 3,2 km/h (1 Bft) 95,65 %
28.01.2022 08:06 2,8 C 2,2 C 0,6 C 95 % 1034,0 hPa 0,0 l/m 0 min 0 min 0 W/m 6,4 km/h (2 Bft) 93,62 %
28.01.2022 08:08 2,8 C 2,2 C 0,6 C 95 % 1034,0 hPa 0,0 l/m 0 min 0 min 0 W/m 6,4 km/h (2 Bft) 97,87 %
28.01.2022 08:10 2,8 C 2,2 C 0,6 C 95 % 1034,1 hPa 0,0 l/m 0 min 0 min 0 W/m 6,4 km/h (2 Bft) 97,87 %
28.01.2022 08:12 2,8 C 2,2 C 0,6 C 95 % 1034,1 hPa 0,0 l/m 0 min 0 min 0 W/m 6,4 km/h (2 Bft) 97,87 %
28.01.2022 08:14 2,8 C 2,2 C 0,6 C 95 % 1034,1 hPa 0,0 l/m 0 min 0 min 0 W/m 6,4 km/h (2 Bft) 100,00 %
28.01.2022 08:16 2,8 C 2,2 C 0,6 C 95 % 1034,2 hPa 0,0 l/m 0 min 0 min 0 W/m 3,2 km/h (1 Bft) 100,00 %
28.01.2022 08:18 2,8 C 2,2 C 0,6 C 95 % 1034,2 hPa 0,0 l/m 0 min 0 min 0 W/m 6,4 km/h (2 Bft) 100,00 %
28.01.2022 08:20 2,8 C 2,2 C 0,6 C 96 % 1034,2 hPa 0,0 l/m 0 min 0 min 2 W/m 3,2 km/h (1 Bft) 97,87 %
28.01.2022 08:22 2,7 C 2,2 C 0,6 C 96 % 1034,3 hPa 0,0 l/m 0 min 0 min 5 W/m 6,4 km/h (2 Bft) 100,00 %
28.01.2022 08:24 2,7 C 2,2 C 0,6 C 96 % 1034,3 hPa 0,0 l/m 0 min 0 min 6 W/m 3,2 km/h (1 Bft) 100,00 %
28.01.2022 08:26 2,7 C 2,2 C 0,6 C 96 % 1034,3 hPa 0,0 l/m 0 min 0 min 8 W/m 3,2 km/h (1 Bft) 100,00 %
28.01.2022 08:28 2,7 C 2,2 C 0,6 C 96 % 1034,3 hPa 0,0 l/m 0 min 0 min 9 W/m 6,4 km/h (2 Bft) 100,00 %
28.01.2022 08:30 2,7 C 2,2 C 0,6 C 96 % 1034,2 hPa 0,0 l/m 0 min 0 min 11 W/m 3,2 km/h (1 Bft) 100,00 %
28.01.2022 08:32 2,7 C 2,2 C 0,6 C 96 % 1034,3 hPa 0,0 l/m 0 min 0 min 13 W/m 9,7 km/h (2 Bft) 100,00 %
28.01.2022 08:34 2,7 C 2,2 C 0,6 C 96 % 1034,3 hPa 0,0 l/m 0 min 0 min 15 W/m 3,2 km/h (1 Bft) 100,00 %
28.01.2022 08:36 2,7 C 2,2 C 0,6 C 96 % 1034,3 hPa 0,0 l/m 0 min 0 min 19 W/m 3,2 km/h (1 Bft) 100,00 %
28.01.2022 08:38 2,7 C 2,2 C 0,6 C 96 % 1034,3 hPa 0,0 l/m 0 min 0 min 18 W/m 6,4 km/h (2 Bft) 100,00 %
28.01.2022 08:40 2,7 C 2,2 C 0,6 C 96 % 1034,3 hPa 0,0 l/m 0 min 0 min 18 W/m 9,7 km/h (2 Bft) 100,00 %
28.01.2022 08:42 2,7 C 2,2 C 0,6 C 96 % 1034,3 hPa 0,0 l/m 0 min 0 min 20 W/m 6,4 km/h (2 Bft) 100,00 %
28.01.2022 08:44 2,7 C 2,2 C 0,6 C 96 % 1034,2 hPa 0,0 l/m 0 min 0 min 23 W/m 3,2 km/h (1 Bft) 100,00 %
28.01.2022 08:46 2,8 C 2,2 C 0,6 C 96 % 1034,2 hPa 0,0 l/m 0 min 0 min 28 W/m 6,4 km/h (2 Bft) 100,00 %
28.01.2022 08:48 2,8 C 2,2 C 0,6 C 96 % 1034,2 hPa 0,0 l/m 0 min 0 min 24 W/m 6,4 km/h (2 Bft) 100,00 %
28.01.2022 08:50 2,8 C 2,8 C 1,1 C 96 % 1034,2 hPa 0,0 l/m 0 min 0 min 25 W/m 3,2 km/h (1 Bft) 100,00 %
28.01.2022 08:52 2,8 C 2,8 C 1,1 C 96 % 1034,2 hPa 0,0 l/m 0 min 0 min 27 W/m 6,4 km/h (2 Bft) 97,87 %
28.01.2022 08:54 2,8 C 2,8 C 1,1 C 96 % 1034,2 hPa 0,0 l/m 0 min 0 min 29 W/m 9,7 km/h (2 Bft) 97,87 %
28.01.2022 08:56 2,9 C 2,8 C 1,1 C 96 % 1034,2 hPa 0,0 l/m 0 min 0 min 26 W/m 9,7 km/h (2 Bft) 100,00 %
28.01.2022 08:58 2,9 C 2,8 C 1,1 C 96 % 1034,2 hPa 0,0 l/m 0 min 0 min 26 W/m 6,4 km/h (2 Bft) 100,00 %
28.01.2022 09:00 2,9 C 2,8 C 1,1 C 96 % 1034,2 hPa 0,0 l/m 0 min 0 min 29 W/m 3,2 km/h (1 Bft) 97,87 %
28.01.2022 09:02 2,9 C 2,8 C 1,1 C 96 % 1034,2 hPa 0,0 l/m 0 min 0 min 35 W/m 6,4 km/h (2 Bft) 100,00 %
28.01.2022 09:04 2,9 C 2,8 C 1,1 C 96 % 1034,2 hPa 0,0 l/m 0 min 0 min 41 W/m 6,4 km/h (2 Bft) 97,83 %
28.01.2022 09:06 3,0 C 2,8 C 1,1 C 96 % 1034,3 hPa 0,0 l/m 0 min 0 min 37 W/m 6,4 km/h (2 Bft) 100,00 %
28.01.2022 09:08 3,0 C 2,8 C 1,1 C 96 % 1034,3 hPa 0,0 l/m 0 min 0 min 33 W/m 6,4 km/h (2 Bft) 95,74 %
28.01.2022 09:10 3,1 C 2,8 C 1,1 C 96 % 1034,3 hPa 0,0 l/m 0 min 0 min 32 W/m 6,4 km/h (2 Bft) 100,00 %
28.01.2022 09:12 3,1 C 2,8 C 1,1 C 96 % 1034,2 hPa 0,0 l/m 0 min 0 min 34 W/m 9,7 km/h (2 Bft) 100,00 %
28.01.2022 09:14 3,1 C 2,8 C 1,1 C 96 % 1034,3 hPa 0,0 l/m 0 min 0 min 38 W/m 6,4 km/h (2 Bft) 97,83 %
28.01.2022 09:16 3,1 C 2,8 C 1,1 C 96 % 1034,3 hPa 0,0 l/m 0 min 0 min 39 W/m 6,4 km/h (2 Bft) 100,00 %
28.01.2022 09:18 3,2 C 2,8 C 1,1 C 96 % 1034,4 hPa 0,0 l/m 0 min 0 min 40 W/m 6,4 km/h (2 Bft) 97,87 %
28.01.2022 09:20 3,2 C 2,8 C 1,1 C 96 % 1034,4 hPa 0,0 l/m 0 min 0 min 39 W/m 6,4 km/h (2 Bft) 97,87 %
28.01.2022 09:22 3,2 C 2,8 C 1,1 C 96 % 1034,5 hPa 0,0 l/m 0 min 0 min 38 W/m 6,4 km/h (2 Bft) 97,87 %
28.01.2022 09:24 3,2 C 2,8 C 1,1 C 96 % 1034,5 hPa 0,0 l/m 0 min 0 min 35 W/m 6,4 km/h (2 Bft) 94,55 %
28.01.2022 09:26 3,2 C 2,8 C 1,1 C 96 % 1034,5 hPa 0,0 l/m 0 min 0 min 32 W/m 6,4 km/h (2 Bft) 95,74 %
28.01.2022 09:28 3,2 C 2,8 C 1,1 C 96 % 1034,5 hPa 0,0 l/m 0 min 0 min 30 W/m 6,4 km/h (2 Bft) 96,00 %
28.01.2022 09:30 3,2 C 2,8 C 1,1 C 96 % 1034,6 hPa 0,0 l/m 0 min 0 min 32 W/m 6,4 km/h (2 Bft) 95,65 %
28.01.2022 09:32 3,2 C 2,8 C 1,1 C 96 % 1034,7 hPa 0,0 l/m 0 min 0 min 38 W/m 6,4 km/h (2 Bft) 95,74 %
28.01.2022 09:34 3,2 C 2,8 C 1,1 C 96 % 1034,7 hPa 0,0 l/m 0 min 0 min 51 W/m 9,7 km/h (2 Bft) 95,74 %
28.01.2022 09:36 3,2 C 2,8 C 1,1 C 96 % 1034,8 hPa 0,0 l/m 0 min 0 min 62 W/m 9,7 km/h (2 Bft) 95,74 %
28.01.2022 09:38 3,3 C 3,3 C 1,1 C 96 % 1034,9 hPa 0,0 l/m 0 min 0 min 60 W/m 6,4 km/h (2 Bft) 95,74 %
28.01.2022 09:40 3,3 C 3,3 C 1,1 C 96 % 1034,9 hPa 0,0 l/m 0 min 0 min 53 W/m 6,4 km/h (2 Bft) 95,74 %
28.01.2022 09:42 3,3 C 3,3 C 1,1 C 96 % 1035,0 hPa 0,0 l/m 0 min 0 min 54 W/m 6,4 km/h (2 Bft) 95,65 %
28.01.2022 09:44 3,3 C 3,3 C 1,1 C 96 % 1035,0 hPa 0,0 l/m 0 min 0 min 69 W/m 6,4 km/h (2 Bft) 95,74 %
28.01.2022 09:46 3,3 C 3,3 C 1,7 C 96 % 1035,0 hPa 0,0 l/m 0 min 0 min 78 W/m 6,4 km/h (2 Bft) 95,74 %
28.01.2022 09:48 3,3 C 3,3 C 1,7 C 96 % 1035,0 hPa 0,0 l/m 2 min 0 min 112 W/m 6,4 km/h (2 Bft) 95,74 %
28.01.2022 09:50 3,3 C 3,3 C 1,7 C 96 % 1035,0 hPa 0,0 l/m 2 min 0 min 135 W/m 3,2 km/h (1 Bft) 95,74 %
28.01.2022 09:52 3,4 C 3,3 C 1,7 C 96 % 1035,0 hPa 0,0 l/m 0 min 0 min 76 W/m 6,4 km/h (2 Bft) 93,48 %
28.01.2022 09:54 3,4 C 3,3 C 1,7 C 96 % 1035,0 hPa 0,0 l/m 0 min 0 min 68 W/m 6,4 km/h (2 Bft) 93,62 %
28.01.2022 09:56 3,4 C 3,3 C 1,7 C 97 % 1035,0 hPa 0,0 l/m 0 min 0 min 84 W/m 6,4 km/h (2 Bft) 95,74 %
28.01.2022 09:58 3,5 C 3,3 C 1,7 C 97 % 1034,9 hPa 0,0 l/m 2 min 0 min 128 W/m 12,9 km/h (3 Bft) 95,74 %
28.01.2022 10:00 3,5 C 3,3 C 1,7 C 97 % 1034,9 hPa 0,0 l/m 2 min 0 min 137 W/m 12,9 km/h (3 Bft) 97,87 %
28.01.2022 10:02 3,6 C 3,3 C 1,7 C 97 % 1034,9 hPa 0,0 l/m 2 min 0 min 133 W/m 6,4 km/h (2 Bft) 97,87 %
28.01.2022 10:04 3,6 C 3,3 C 1,7 C 97 % 1034,9 hPa 0,0 l/m 2 min 0 min 161 W/m 9,7 km/h (2 Bft) 97,83 %
28.01.2022 10:06 3,6 C 3,9 C 1,7 C 97 % 1034,9 hPa 0,0 l/m 2 min 0 min 175 W/m 9,7 km/h (2 Bft) 97,87 %
28.01.2022 10:08 3,7 C 3,9 C 1,7 C 97 % 1034,9 hPa 0,0 l/m 2 min 0 min 179 W/m 9,7 km/h (2 Bft) 100,00 %
28.01.2022 10:10 3,7 C 3,9 C 1,7 C 97 % 1034,9 hPa 0,0 l/m 2 min 0 min 186 W/m 12,9 km/h (3 Bft) 97,87 %
28.01.2022 10:12 3,8 C 3,9 C 1,7 C 97 % 1035,0 hPa 0,0 l/m 2 min 0 min 192 W/m 6,4 km/h (2 Bft) 97,87 %
28.01.2022 10:14 3,8 C 3,9 C 1,7 C 97 % 1034,9 hPa 0,0 l/m 2 min 0 min 195 W/m 6,4 km/h (2 Bft) 97,87 %
28.01.2022 10:16 3,9 C 3,9 C 1,7 C 97 % 1035,0 hPa 0,0 l/m 2 min 0 min 198 W/m 9,7 km/h (2 Bft) 97,83 %
28.01.2022 10:18 3,9 C 3,9 C 1,7 C 97 % 1035,0 hPa 0,0 l/m 2 min 0 min 196 W/m 12,9 km/h (3 Bft) 97,87 %
28.01.2022 10:20 4,0 C 4,4 C 2,2 C 97 % 1035,1 hPa 0,0 l/m 0 min 0 min 104 W/m 6,4 km/h (2 Bft) 97,87 %
28.01.2022 10:22 4,1 C 4,4 C 2,2 C 97 % 1035,1 hPa 0,0 l/m 2 min 0 min 166 W/m 6,4 km/h (2 Bft) 97,87 %
28.01.2022 10:27 4,2 C 4,4 C 2,2 C 97 % 1035,0 hPa 0,0 l/m 0 min 0 min 119 W/m 9,7 km/h (2 Bft) 94,87 %
28.01.2022 10:28 4,3 C 5,0 C 2,2 C 97 % 1035,0 hPa 0,0 l/m 1 min 0 min 243 W/m 6,4 km/h (2 Bft) 95,65 %
28.01.2022 10:30 4,3 C 5,0 C 2,2 C 97 % 1035,1 hPa 0,0 l/m 2 min 0 min 244 W/m 9,7 km/h (2 Bft) 97,87 %
28.01.2022 10:32 4,4 C 5,0 C 2,2 C 97 % 1035,0 hPa 0,0 l/m 2 min 0 min 256 W/m 12,9 km/h (3 Bft) 97,87 %
28.01.2022 10:34 4,6 C 5,6 C 2,8 C 97 % 1035,0 hPa 0,0 l/m 2 min 0 min 267 W/m 12,9 km/h (3 Bft) 97,87 %
28.01.2022 10:36 4,6 C 6,1 C 2,8 C 97 % 1035,1 hPa 0,0 l/m 2 min 0 min 273 W/m 9,7 km/h (2 Bft) 97,87 %
28.01.2022 10:38 4,8 C 7,2 C 2,8 C 97 % 1035,1 hPa 0,0 l/m 2 min 0 min 264 W/m 9,7 km/h (2 Bft) 97,87 %
28.01.2022 10:40 4,8 C 6,7 C 2,8 C 97 % 1035,1 hPa 0,0 l/m 2 min 0 min 225 W/m 12,9 km/h (3 Bft) 100,00 %
28.01.2022 10:42 4,9 C 7,2 C 2,8 C 96 % 1035,2 hPa 0,0 l/m 0 min 0 min 112 W/m 6,4 km/h (2 Bft) 100,00 %
28.01.2022 10:44 4,9 C 7,2 C 2,8 C 96 % 1035,2 hPa 0,0 l/m 0 min 0 min 123 W/m 6,4 km/h (2 Bft) 97,87 %
28.01.2022 10:46 5,0 C 6,7 C 2,8 C 96 % 1035,3 hPa 0,0 l/m 0 min 0 min 111 W/m 6,4 km/h (2 Bft) 100,00 %
28.01.2022 10:48 5,1 C 7,2 C 2,8 C 96 % 1035,2 hPa 0,0 l/m 0 min 0 min 113 W/m 6,4 km/h (2 Bft) 97,87 %
28.01.2022 10:50 5,1 C 6,7 C 2,8 C 96 % 1035,2 hPa 0,0 l/m 0 min 0 min 100 W/m 9,7 km/h (2 Bft) 100,00 %
28.01.2022 10:52 5,1 C 7,2 C 2,8 C 95 % 1035,2 hPa 0,0 l/m 0 min 0 min 98 W/m 6,4 km/h (2 Bft) 100,00 %
28.01.2022 10:54 5,1 C 8,9 C 2,8 C 95 % 1035,2 hPa 0,0 l/m 2 min 0 min 229 W/m 9,7 km/h (2 Bft) 97,87 %
28.01.2022 10:56 5,2 C 9,4 C 2,8 C 95 % 1035,2 hPa 0,0 l/m 2 min 0 min 263 W/m 6,4 km/h (2 Bft) 97,87 %
28.01.2022 10:58 5,2 C 10,6 C 3,3 C 95 % 1035,2 hPa 0,0 l/m 2 min 0 min 205 W/m 6,4 km/h (2 Bft) 100,00 %
28.01.2022 11:00 5,3 C 10,6 C 3,3 C 95 % 1035,2 hPa 0,0 l/m 2 min 0 min 293 W/m 12,9 km/h (3 Bft) 100,00 %
28.01.2022 11:02 5,4 C 8,9 C 3,3 C 95 % 1035,2 hPa 0,0 l/m 2 min 0 min 164 W/m 12,9 km/h (3 Bft) 100,00 %
28.01.2022 11:04 5,4 C 8,9 C 3,3 C 95 % 1035,3 hPa 0,0 l/m 0 min 0 min 88 W/m 6,4 km/h (2 Bft) 100,00 %
28.01.2022 11:06 5,5 C 9,4 C 3,3 C 94 % 1035,3 hPa 0,0 l/m 0 min 0 min 110 W/m 9,7 km/h (2 Bft) 100,00 %
28.01.2022 11:08 5,5 C 10,6 C 3,3 C 94 % 1035,4 hPa 0,0 l/m 2 min 0 min 306 W/m 6,4 km/h (2 Bft) 100,00 %
28.01.2022 11:10 5,6 C 11,7 C 3,3 C 94 % 1035,4 hPa 0,0 l/m 2 min 0 min 289 W/m 9,7 km/h (2 Bft) 97,87 %
28.01.2022 11:12 5,7 C 12,8 C 3,3 C 94 % 1035,4 hPa 0,0 l/m 2 min 0 min 329 W/m 9,7 km/h (2 Bft) 100,00 %
28.01.2022 11:14 5,8 C 12,2 C 3,3 C 93 % 1035,5 hPa 0,0 l/m 2 min 0 min 320 W/m 12,9 km/h (3 Bft) 100,00 %
28.01.2022 11:16 5,9 C 12,2 C 3,3 C 93 % 1035,4 hPa 0,0 l/m 2 min 0 min 282 W/m 9,7 km/h (2 Bft) 100,00 %
28.01.2022 11:18 5,9 C 12,2 C 3,9 C 93 % 1035,4 hPa 0,0 l/m 2 min 0 min 286 W/m 6,4 km/h (2 Bft) 100,00 %
28.01.2022 11:20 6,0 C 10,6 C 3,9 C 93 % 1035,5 hPa 0,0 l/m 2 min 0 min 218 W/m 16,1 km/h (3 Bft) 100,00 %
28.01.2022 11:22 6,1 C 9,4 C 3,9 C 92 % 1035,5 hPa 0,0 l/m 2 min 0 min 212 W/m 9,7 km/h (2 Bft) 100,00 %
28.01.2022 11:24 6,1 C 8,3 C 3,9 C 91 % 1035,5 hPa 0,0 l/m 2 min 0 min 202 W/m 9,7 km/h (2 Bft) 100,00 %
28.01.2022 11:26 6,1 C 7,8 C 4,4 C 91 % 1035,5 hPa 0,0 l/m 2 min 0 min 198 W/m 12,9 km/h (3 Bft) 100,00 %
28.01.2022 11:28 6,1 C 7,2 C 4,4 C 91 % 1035,5 hPa 0,0 l/m 2 min 0 min 193 W/m 16,1 km/h (3 Bft) 100,00 %
28.01.2022 11:30 6,1 C 7,2 C 4,4 C 90 % 1035,5 hPa 0,0 l/m 0 min 0 min 173 W/m 9,7 km/h (2 Bft) 100,00 %
28.01.2022 11:32 6,1 C 6,7 C 4,4 C 90 % 1035,4 hPa 0,0 l/m 0 min 0 min 157 W/m 12,9 km/h (3 Bft) 97,87 %
28.01.2022 11:34 6,1 C 6,7 C 4,4 C 90 % 1035,4 hPa 0,0 l/m 0 min 0 min 143 W/m 9,7 km/h (2 Bft) 100,00 %
28.01.2022 11:36 6,1 C 6,7 C 4,4 C 90 % 1035,4 hPa 0,0 l/m 0 min 0 min 129 W/m 9,7 km/h (2 Bft) 100,00 %
28.01.2022 11:38 6,1 C 6,1 C 4,4 C 89 % 1035,4 hPa 0,0 l/m 0 min 0 min 119 W/m 6,4 km/h (2 Bft) 100,00 %
28.01.2022 11:40 6,1 C 6,1 C 4,4 C 89 % 1035,4 hPa 0,0 l/m 0 min 0 min 113 W/m 3,2 km/h (1 Bft) 100,00 %
28.01.2022 11:42 6,0 C 6,1 C 3,9 C 89 % 1035,5 hPa 0,0 l/m 0 min 0 min 114 W/m 6,4 km/h (2 Bft) 100,00 %
28.01.2022 11:44 6,0 C 6,1 C 3,9 C 89 % 1035,5 hPa 0,0 l/m 0 min 0 min 123 W/m 6,4 km/h (2 Bft) 100,00 %
28.01.2022 11:46 6,0 C 6,1 C 3,9 C 89 % 1035,4 hPa 0,0 l/m 0 min 0 min 106 W/m 6,4 km/h (2 Bft) 100,00 %
28.01.2022 11:48 6,0 C 6,1 C 3,9 C 89 % 1035,5 hPa 0,0 l/m 0 min 0 min 80 W/m 12,9 km/h (3 Bft) 100,00 %
28.01.2022 11:50 5,9 C 6,1 C 3,9 C 89 % 1035,4 hPa 0,0 l/m 0 min 0 min 96 W/m 16,1 km/h (3 Bft) 100,00 %
28.01.2022 11:52 5,9 C 6,1 C 3,9 C 89 % 1035,4 hPa 0,0 l/m 0 min 0 min 87 W/m 9,7 km/h (2 Bft) 97,83 %
28.01.2022 11:54 5,9 C 6,1 C 3,9 C 88 % 1035,3 hPa 0,0 l/m 0 min 0 min 115 W/m 9,7 km/h (2 Bft) 100,00 %
28.01.2022 11:56 5,9 C 6,1 C 3,9 C 88 % 1035,4 hPa 0,0 l/m 2 min 0 min 190 W/m 6,4 km/h (2 Bft) 100,00 %
28.01.2022 11:58 6,0 C 6,7 C 4,4 C 88 % 1035,4 hPa 0,0 l/m 0 min 0 min 174 W/m 12,9 km/h (3 Bft) 100,00 %
28.01.2022 12:00 6,0 C 6,7 C 4,4 C 88 % 1035,5 hPa 0,0 l/m 0 min 0 min 163 W/m 12,9 km/h (3 Bft) 100,00 %
28.01.2022 12:02 6,1 C 6,7 C 4,4 C 88 % 1035,4 hPa 0,0 l/m 0 min 0 min 168 W/m 6,4 km/h (2 Bft) 100,00 %
28.01.2022 12:04 6,1 C 6,7 C 4,4 C 88 % 1035,4 hPa 0,0 l/m 0 min 0 min 163 W/m 3,2 km/h (1 Bft) 100,00 %
28.01.2022 12:06 6,2 C 7,2 C 4,4 C 88 % 1035,4 hPa 0,0 l/m 0 min 0 min 152 W/m 9,7 km/h (2 Bft) 100,00 %
28.01.2022 12:08 6,2 C 7,2 C 4,4 C 88 % 1035,5 hPa 0,0 l/m 0 min 0 min 180 W/m 9,7 km/h (2 Bft) 100,00 %
28.01.2022 12:10 6,3 C 7,8 C 4,4 C 88 % 1035,6 hPa 0,0 l/m 0 min 0 min 181 W/m 12,9 km/h (3 Bft) 100,00 %
28.01.2022 12:12 6,4 C 7,8 C 4,4 C 88 % 1035,5 hPa 0,0 l/m 0 min 0 min 116 W/m 9,7 km/h (2 Bft) 97,83 %
28.01.2022 12:14 6,4 C 7,2 C 4,4 C 88 % 1035,5 hPa 0,0 l/m 0 min 0 min 119 W/m 6,4 km/h (2 Bft) 95,74 %
28.01.2022 12:16 6,5 C 7,2 C 4,4 C 88 % 1035,5 hPa 0,0 l/m 0 min 0 min 165 W/m 9,7 km/h (2 Bft) 95,74 %
28.01.2022 12:18 6,5 C 7,2 C 4,4 C 87 % 1035,5 hPa 0,0 l/m 0 min 0 min 148 W/m 9,7 km/h (2 Bft) 97,87 %
28.01.2022 12:20 6,5 C 7,2 C 4,4 C 87 % 1035,6 hPa 0,0 l/m 0 min 0 min 107 W/m 6,4 km/h (2 Bft) 97,87 %
28.01.2022 12:22 6,6 C 7,2 C 4,4 C 87 % 1035,6 hPa 0,0 l/m 0 min 0 min 113 W/m 6,4 km/h (2 Bft) 97,83 %
28.01.2022 12:24 6,6 C 7,2 C 4,4 C 87 % 1035,6 hPa 0,0 l/m 0 min 0 min 112 W/m 6,4 km/h (2 Bft) 95,74 %
28.01.2022 12:26 6,6 C 6,7 C 4,4 C 87 % 1035,5 hPa 0,0 l/m 0 min 0 min 113 W/m 6,4 km/h (2 Bft) 97,87 %
28.01.2022 12:28 6,7 C 6,7 C 4,4 C 87 % 1035,5 hPa 0,0 l/m 0 min 0 min 126 W/m 16,1 km/h (3 Bft) 97,87 %
28.01.2022 12:30 6,7 C 7,2 C 4,4 C 87 % 1035,5 hPa 0,0 l/m 0 min 0 min 150 W/m 9,7 km/h (2 Bft) 95,74 %
28.01.2022 12:32 6,7 C 8,3 C 4,4 C 87 % 1035,5 hPa 0,0 l/m 2 min 0 min 204 W/m 9,7 km/h (2 Bft) 95,74 %
28.01.2022 12:34 6,8 C 8,3 C 5,0 C 87 % 1035,5 hPa 0,0 l/m 0 min 0 min 182 W/m 16,1 km/h (3 Bft) 95,65 %
28.01.2022 12:36 6,9 C 9,4 C 5,0 C 87 % 1035,4 hPa 0,0 l/m 2 min 0 min 230 W/m 12,9 km/h (3 Bft) 91,49 %
28.01.2022 12:38 7,0 C 10,0 C 5,0 C 87 % 1035,4 hPa 0,0 l/m 2 min 0 min 262 W/m 16,1 km/h (3 Bft) 95,74 %
28.01.2022 12:40 7,1 C 10,6 C 5,0 C 87 % 1035,3 hPa 0,0 l/m 2 min 0 min 281 W/m 16,1 km/h (3 Bft) 95,74 %
28.01.2022 12:42 7,2 C 10,6 C 5,0 C 86 % 1035,3 hPa 0,0 l/m 2 min 0 min 285 W/m 12,9 km/h (3 Bft) 96,23 %
28.01.2022 12:44 7,4 C 10,6 C 5,0 C 86 % 1035,4 hPa 0,0 l/m 2 min 0 min 311 W/m 12,9 km/h (3 Bft) 95,74 %
28.01.2022 12:46 7,4 C 9,4 C 5,0 C 85 % 1035,3 hPa 0,0 l/m 2 min 0 min 220 W/m 12,9 km/h (3 Bft) 93,62 %
28.01.2022 12:48 7,4 C 9,4 C 5,0 C 85 % 1035,3 hPa 0,0 l/m 0 min 0 min 141 W/m 6,4 km/h (2 Bft) 93,62 %
28.01.2022 12:50 7,4 C 10,0 C 5,0 C 85 % 1035,3 hPa 0,0 l/m 2 min 0 min 206 W/m 6,4 km/h (2 Bft) 95,74 %
28.01.2022 12:52 7,4 C 10,0 C 4,4 C 84 % 1035,2 hPa 0,0 l/m 0 min 0 min 145 W/m 12,9 km/h (3 Bft) 95,65 %
28.01.2022 12:54 7,4 C 9,4 C 4,4 C 84 % 1035,2 hPa 0,0 l/m 2 min 0 min 211 W/m 9,7 km/h (2 Bft) 93,62 %
28.01.2022 12:56 7,4 C 10,0 C 4,4 C 84 % 1035,2 hPa 0,0 l/m 0 min 0 min 176 W/m 9,7 km/h (2 Bft) 97,87 %
28.01.2022 12:58 7,5 C 11,7 C 4,4 C 85 % 1035,2 hPa 0,0 l/m 0 min 0 min 191 W/m 16,1 km/h (3 Bft) 97,87 %
28.01.2022 13:00 7,6 C 11,1 C 4,4 C 84 % 1035,2 hPa 0,0 l/m 2 min 0 min 235 W/m 9,7 km/h (2 Bft) 95,74 %
28.01.2022 13:02 7,6 C 11,1 C 5,0 C 84 % 1035,1 hPa 0,0 l/m 2 min 0 min 211 W/m 6,4 km/h (2 Bft) 97,87 %
28.01.2022 13:04 7,6 C 14,4 C 5,0 C 84 % 1035,1 hPa 0,0 l/m 2 min 0 min 417 W/m 12,9 km/h (3 Bft) 97,83 %
28.01.2022 13:06 7,7 C 14,4 C 5,0 C 84 % 1035,1 hPa 0,0 l/m 2 min 0 min 406 W/m 12,9 km/h (3 Bft) 93,62 %
28.01.2022 13:08 7,8 C 15,0 C 5,0 C 83 % 1035,0 hPa 0,0 l/m 2 min 0 min 384 W/m 12,9 km/h (3 Bft) 100,00 %
28.01.2022 13:10 7,9 C 15,6 C 5,0 C 84 % 1035,0 hPa 0,0 l/m 2 min 0 min 357 W/m 6,4 km/h (2 Bft) 100,00 %
28.01.2022 13:12 7,9 C 14,4 C 4,4 C 83 % 1034,9 hPa 0,0 l/m 2 min 0 min 356 W/m 9,7 km/h (2 Bft) 100,00 %
28.01.2022 13:14 7,9 C 14,4 C 4,4 C 83 % 1035,0 hPa 0,0 l/m 2 min 0 min 357 W/m 9,7 km/h (2 Bft) 97,83 %
28.01.2022 13:16 7,9 C 15,0 C 4,4 C 82 % 1034,9 hPa 0,0 l/m 2 min 0 min 398 W/m 6,4 km/h (2 Bft) 100,00 %
28.01.2022 13:18 8,0 C 16,7 C 4,4 C 82 % 1034,9 hPa 0,0 l/m 2 min 0 min 435 W/m 12,9 km/h (3 Bft) 100,00 %
28.01.2022 13:20 8,1 C 16,1 C 5,0 C 82 % 1034,9 hPa 0,0 l/m 2 min 0 min 434 W/m 16,1 km/h (3 Bft) 100,00 %
28.01.2022 13:22 8,1 C 16,7 C 5,0 C 82 % 1034,9 hPa 0,0 l/m 2 min 0 min 468 W/m 12,9 km/h (3 Bft) 100,00 %
28.01.2022 13:24 8,2 C 13,9 C 5,0 C 81 % 1034,9 hPa 0,0 l/m 2 min 0 min 404 W/m 12,9 km/h (3 Bft) 100,00 %
28.01.2022 13:26 8,1 C 12,2 C 5,0 C 80 % 1034,9 hPa 0,0 l/m 2 min 0 min 212 W/m 16,1 km/h (3 Bft) 100,00 %
28.01.2022 13:28 8,1 C 12,2 C 5,0 C 81 % 1035,0 hPa 0,0 l/m 2 min 0 min 312 W/m 12,9 km/h (3 Bft) 100,00 %
28.01.2022 13:30 8,0 C 10,0 C 5,0 C 80 % 1035,0 hPa 0,0 l/m 2 min 0 min 195 W/m 16,1 km/h (3 Bft) 100,00 %
28.01.2022 13:32 7,9 C 8,9 C 5,0 C 80 % 1035,0 hPa 0,0 l/m 0 min 0 min 99 W/m 22,5 km/h (4 Bft) 97,87 %
28.01.2022 13:34 7,8 C 8,3 C 4,4 C 80 % 1034,9 hPa 0,0 l/m 0 min 0 min 95 W/m 12,9 km/h (3 Bft) 100,00 %
28.01.2022 13:36 7,7 C 9,4 C 4,4 C 80 % 1034,9 hPa 0,0 l/m 0 min 0 min 111 W/m 9,7 km/h (2 Bft) 100,00 %
28.01.2022 13:38 7,7 C 10,0 C 4,4 C 80 % 1034,9 hPa 0,0 l/m 2 min 0 min 194 W/m 9,7 km/h (2 Bft) 97,83 %
28.01.2022 13:40 7,7 C 10,0 C 4,4 C 80 % 1034,9 hPa 0,0 l/m 2 min 0 min 232 W/m 12,9 km/h (3 Bft) 100,00 %
28.01.2022 13:42 7,7 C 12,2 C 4,4 C 80 % 1034,9 hPa 0,0 l/m 2 min 0 min 347 W/m 9,7 km/h (2 Bft) 100,00 %
28.01.2022 13:44 7,8 C 11,7 C 4,4 C 80 % 1034,8 hPa 0,0 l/m 2 min 0 min 424 W/m 9,7 km/h (2 Bft) 97,87 %
28.01.2022 13:46 7,8 C 12,2 C 4,4 C 80 % 1034,8 hPa 0,0 l/m 2 min 0 min 256 W/m 6,4 km/h (2 Bft) 97,87 %
28.01.2022 13:48 7,9 C 10,6 C 4,4 C 80 % 1034,8 hPa 0,0 l/m 0 min 0 min 134 W/m 9,7 km/h (2 Bft) 100,00 %
28.01.2022 13:50 7,8 C 10,0 C 4,4 C 80 % 1034,8 hPa 0,0 l/m 0 min 0 min 129 W/m 12,9 km/h (3 Bft) 100,00 %
28.01.2022 13:52 7,8 C 8,9 C 4,4 C 80 % 1034,7 hPa 0,0 l/m 0 min 0 min 88 W/m 6,4 km/h (2 Bft) 100,00 %
28.01.2022 13:54 7,7 C 8,3 C 4,4 C 80 % 1034,7 hPa 0,0 l/m 0 min 0 min 58 W/m 6,4 km/h (2 Bft) 100,00 %
28.01.2022 13:56 7,7 C 8,3 C 3,9 C 80 % 1034,7 hPa 0,0 l/m 0 min 0 min 73 W/m 6,4 km/h (2 Bft) 97,87 %
28.01.2022 13:58 7,7 C 7,8 C 3,9 C 80 % 1034,7 hPa 0,0 l/m 0 min 0 min 65 W/m 6,4 km/h (2 Bft) 97,87 %
28.01.2022 14:00 7,6 C 7,2 C 3,9 C 80 % 1034,7 hPa 0,0 l/m 0 min 0 min 51 W/m 6,4 km/h (2 Bft) 100,00 %
28.01.2022 14:02 7,5 C 7,2 C 3,9 C 80 % 1034,6 hPa 0,0 l/m 0 min 0 min 51 W/m 6,4 km/h (2 Bft) 100,00 %
28.01.2022 14:04 7,4 C 6,7 C 3,3 C 81 % 1034,6 hPa 0,0 l/m 0 min 0 min 61 W/m 6,4 km/h (2 Bft) 100,00 %
28.01.2022 14:06 7,3 C 6,7 C 3,3 C 81 % 1034,6 hPa 0,0 l/m 0 min 0 min 70 W/m 3,2 km/h (1 Bft) 97,87 %
28.01.2022 14:08 7,2 C 7,2 C 3,3 C 81 % 1034,6 hPa 0,0 l/m 0 min 0 min 111 W/m 6,4 km/h (2 Bft) 97,87 %
28.01.2022 14:10 7,2 C 7,2 C 3,3 C 81 % 1034,6 hPa 0,0 l/m 0 min 0 min 88 W/m 6,4 km/h (2 Bft) 97,87 %
28.01.2022 14:12 7,1 C 7,2 C 3,3 C 82 % 1034,6 hPa 0,0 l/m 0 min 0 min 78 W/m 6,4 km/h (2 Bft) 97,87 %
28.01.2022 14:14 7,1 C 7,2 C 3,3 C 82 % 1034,7 hPa 0,0 l/m 0 min 0 min 76 W/m 6,4 km/h (2 Bft) 95,65 %
28.01.2022 14:16 7,1 C 6,7 C 3,3 C 82 % 1034,7 hPa 0,0 l/m 0 min 0 min 67 W/m 6,4 km/h (2 Bft) 97,87 %
28.01.2022 14:18 7,0 C 6,7 C 3,3 C 82 % 1034,6 hPa 0,0 l/m 0 min 0 min 67 W/m 6,4 km/h (2 Bft) 97,87 %
28.01.2022 14:20 7,0 C 7,2 C 3,3 C 83 % 1034,6 hPa 0,0 l/m 0 min 0 min 117 W/m 9,7 km/h (2 Bft) 97,87 %
28.01.2022 14:22 6,9 C 7,2 C 3,3 C 83 % 1034,6 hPa 0,0 l/m 0 min 0 min 88 W/m 6,4 km/h (2 Bft) 95,74 %
28.01.2022 14:24 6,9 C 7,2 C 3,3 C 83 % 1034,6 hPa 0,0 l/m 0 min 0 min 79 W/m 6,4 km/h (2 Bft) 97,83 %
28.01.2022 14:26 6,9 C 6,7 C 3,3 C 83 % 1034,5 hPa 0,0 l/m 0 min 0 min 86 W/m 9,7 km/h (2 Bft) 97,87 %
28.01.2022 14:28 6,9 C 6,7 C 3,3 C 83 % 1034,5 hPa 0,0 l/m 0 min 0 min 99 W/m 6,4 km/h (2 Bft) 97,87 %
28.01.2022 14:30 6,9 C 6,7 C 3,3 C 83 % 1034,5 hPa 0,0 l/m 0 min 0 min 92 W/m 9,7 km/h (2 Bft) 97,87 %
28.01.2022 14:32 6,9 C 6,7 C 3,3 C 83 % 1034,4 hPa 0,0 l/m 0 min 0 min 75 W/m 9,7 km/h (2 Bft) 97,87 %
28.01.2022 14:34 6,9 C 6,7 C 3,3 C 83 % 1034,3 hPa 0,0 l/m 0 min 0 min 73 W/m 6,4 km/h (2 Bft) 97,87 %
28.01.2022 14:36 6,9 C 6,7 C 3,3 C 83 % 1034,2 hPa 0,0 l/m 0 min 0 min 66 W/m 6,4 km/h (2 Bft) 97,87 %
28.01.2022 14:38 6,9 C 6,7 C 3,3 C 83 % 1034,2 hPa 0,0 l/m 0 min 0 min 55 W/m 3,2 km/h (1 Bft) 97,83 %
28.01.2022 14:40 6,9 C 6,7 C 3,3 C 83 % 1034,2 hPa 0,0 l/m 0 min 0 min 50 W/m 3,2 km/h (1 Bft) 97,87 %
28.01.2022 14:42 6,9 C 6,7 C 3,3 C 83 % 1034,2 hPa 0,0 l/m 0 min 0 min 52 W/m 3,2 km/h (1 Bft) 97,87 %
28.01.2022 14:44 6,8 C 7,8 C 3,3 C 83 % 1034,2 hPa 0,0 l/m 0 min 0 min 92 W/m 3,2 km/h (1 Bft) 95,74 %
28.01.2022 14:46 6,9 C 8,3 C 3,3 C 83 % 1034,1 hPa 0,0 l/m 2 min 0 min 168 W/m 3,2 km/h (1 Bft) 95,74 %
28.01.2022 14:48 6,9 C 8,3 C 3,3 C 83 % 1034,2 hPa 0,0 l/m 0 min 0 min 70 W/m 6,4 km/h (2 Bft) 97,83 %
28.01.2022 14:50 6,9 C 10,0 C 3,3 C 83 % 1034,2 hPa 0,0 l/m 2 min 0 min 271 W/m 3,2 km/h (1 Bft) 97,87 %
28.01.2022 14:52 7,0 C 10,0 C 3,3 C 84 % 1034,2 hPa 0,0 l/m 2 min 0 min 234 W/m 3,2 km/h (1 Bft) 95,74 %
28.01.2022 14:54 7,1 C 10,6 C 3,3 C 84 % 1034,2 hPa 0,0 l/m 2 min 0 min 258 W/m 3,2 km/h (1 Bft) 93,62 %
28.01.2022 14:56 7,1 C 11,7 C 3,3 C 83 % 1034,1 hPa 0,0 l/m 2 min 0 min 281 W/m 3,2 km/h (1 Bft) 93,62 %
28.01.2022 14:58 7,2 C 12,8 C 3,3 C 83 % 1034,1 hPa 0,0 l/m 2 min 0 min 289 W/m 9,7 km/h (2 Bft) 93,62 %
28.01.2022 15:00 7,3 C 12,8 C 3,9 C 83 % 1034,1 hPa 0,0 l/m 2 min 0 min 288 W/m 6,4 km/h (2 Bft) 95,65 %
28.01.2022 15:02 7,4 C 12,8 C 3,9 C 83 % 1034,1 hPa 0,0 l/m 2 min 0 min 284 W/m 6,4 km/h (2 Bft) 93,62 %
28.01.2022 15:04 7,5 C 12,2 C 3,9 C 82 % 1034,0 hPa 0,0 l/m 2 min 0 min 294 W/m 19,3 km/h (3 Bft) 95,74 %
28.01.2022 15:06 7,6 C 11,1 C 3,9 C 81 % 1034,0 hPa 0,0 l/m 2 min 0 min 307 W/m 32,2 km/h (5 Bft) 93,62 %
28.01.2022 15:08 7,7 C 10,6 C 4,4 C 81 % 1034,0 hPa 0,0 l/m 2 min 0 min 293 W/m 12,9 km/h (3 Bft) 95,74 %
28.01.2022 15:10 7,8 C 10,6 C 4,4 C 81 % 1034,0 hPa 0,0 l/m 2 min 0 min 247 W/m 19,3 km/h (3 Bft) 95,74 %
28.01.2022 15:12 7,9 C 10,6 C 4,4 C 81 % 1034,1 hPa 0,0 l/m 2 min 0 min 240 W/m 12,9 km/h (3 Bft) 95,65 %
28.01.2022 15:14 7,9 C 10,6 C 4,4 C 81 % 1034,0 hPa 0,0 l/m 2 min 0 min 219 W/m 9,7 km/h (2 Bft) 93,62 %
28.01.2022 15:16 8,0 C 10,6 C 4,4 C 81 % 1034,0 hPa 0,0 l/m 2 min 0 min 207 W/m 6,4 km/h (2 Bft) 95,74 %
28.01.2022 15:18 8,0 C 8,9 C 3,9 C 81 % 1034,0 hPa 0,0 l/m 2 min 0 min 195 W/m 12,9 km/h (3 Bft) 95,74 %
28.01.2022 15:20 7,9 C 8,3 C 3,9 C 80 % 1034,1 hPa 0,0 l/m 0 min 0 min 62 W/m 12,9 km/h (3 Bft) 93,62 %
28.01.2022 15:22 7,9 C 7,8 C 3,9 C 80 % 1034,1 hPa 0,0 l/m 0 min 0 min 99 W/m 12,9 km/h (3 Bft) 95,74 %
28.01.2022 15:24 7,8 C 7,8 C 3,9 C 80 % 1034,1 hPa 0,0 l/m 2 min 0 min 152 W/m 9,7 km/h (2 Bft) 93,48 %
28.01.2022 15:26 7,7 C 7,8 C 3,9 C 80 % 1034,1 hPa 0,0 l/m 0 min 0 min 103 W/m 6,4 km/h (2 Bft) 95,74 %
28.01.2022 15:28 7,7 C 7,2 C 3,9 C 81 % 1034,1 hPa 0,0 l/m 2 min 0 min 130 W/m 6,4 km/h (2 Bft) 95,74 %
28.01.2022 15:30 7,6 C 7,2 C 3,3 C 81 % 1034,1 hPa 0,0 l/m 2 min 0 min 137 W/m 12,9 km/h (3 Bft) 97,87 %
28.01.2022 15:32 7,6 C 7,2 C 3,9 C 81 % 1034,2 hPa 0,0 l/m 2 min 0 min 180 W/m 12,9 km/h (3 Bft) 95,74 %
28.01.2022 15:34 7,5 C 7,2 C 3,3 C 81 % 1034,1 hPa 0,0 l/m 2 min 0 min 150 W/m 16,1 km/h (3 Bft) 97,87 %
28.01.2022 15:36 7,4 C 7,2 C 3,3 C 81 % 1034,2 hPa 0,0 l/m 2 min 0 min 146 W/m 12,9 km/h (3 Bft) 95,65 %
28.01.2022 15:38 7,4 C 7,2 C 3,3 C 81 % 1034,2 hPa 0,0 l/m 2 min 0 min 129 W/m 6,4 km/h (2 Bft) 97,87 %
28.01.2022 15:40 7,3 C 7,2 C 3,3 C 81 % 1034,1 hPa 0,0 l/m 2 min 0 min 118 W/m 12,9 km/h (3 Bft) 95,74 %
28.01.2022 15:42 7,3 C 7,2 C 3,3 C 82 % 1034,1 hPa 0,0 l/m 2 min 0 min 131 W/m 12,9 km/h (3 Bft) 97,87 %
28.01.2022 15:44 7,3 C 6,7 C 3,3 C 82 % 1034,1 hPa 0,0 l/m 2 min 0 min 108 W/m 12,9 km/h (3 Bft) 97,87 %
28.01.2022 15:46 7,2 C 6,7 C 3,3 C 82 % 1034,1 hPa 0,0 l/m 0 min 0 min 86 W/m 12,9 km/h (3 Bft) 97,87 %
28.01.2022 15:48 7,2 C 6,7 C 3,3 C 82 % 1034,2 hPa 0,0 l/m 0 min 0 min 68 W/m 12,9 km/h (3 Bft) 97,83 %
28.01.2022 15:50 7,2 C 6,7 C 3,3 C 83 % 1034,1 hPa 0,0 l/m 0 min 0 min 61 W/m 12,9 km/h (3 Bft) 97,87 %
28.01.2022 15:52 7,1 C 6,7 C 3,3 C 83 % 1034,1 hPa 0,0 l/m 0 min 0 min 59 W/m 6,4 km/h (2 Bft) 95,74 %
28.01.2022 15:54 7,1 C 6,7 C 3,3 C 83 % 1034,2 hPa 0,0 l/m 0 min 0 min 58 W/m 12,9 km/h (3 Bft) 100,00 %
28.01.2022 15:56 7,1 C 6,7 C 3,3 C 84 % 1034,1 hPa 0,0 l/m 0 min 0 min 58 W/m 9,7 km/h (2 Bft) 97,87 %
28.01.2022 15:58 7,0 C 6,7 C 3,3 C 84 % 1034,2 hPa 0,0 l/m 0 min 0 min 57 W/m 6,4 km/h (2 Bft) 100,00 %
28.01.2022 16:00 6,9 C 6,7 C 3,3 C 84 % 1034,3 hPa 0,0 l/m 0 min 0 min 57 W/m 12,9 km/h (3 Bft) 95,74 %
28.01.2022 16:02 6,9 C 6,7 C 3,3 C 84 % 1034,3 hPa 0,0 l/m 0 min 0 min 55 W/m 6,4 km/h (2 Bft) 100,00 %
28.01.2022 16:04 6,9 C 6,1 C 2,8 C 85 % 1034,2 hPa 0,0 l/m 0 min 0 min 54 W/m 12,9 km/h (3 Bft) 100,00 %
28.01.2022 16:06 6,8 C 6,1 C 2,8 C 85 % 1034,2 hPa 0,0 l/m 0 min 0 min 54 W/m 6,4 km/h (2 Bft) 100,00 %
28.01.2022 16:08 6,8 C 6,1 C 2,8 C 85 % 1034,2 hPa 0,0 l/m 0 min 0 min 55 W/m 6,4 km/h (2 Bft) 100,00 %
28.01.2022 16:10 6,8 C 6,1 C 2,8 C 85 % 1034,3 hPa 0,0 l/m 0 min 0 min 57 W/m 6,4 km/h (2 Bft) 100,00 %
28.01.2022 16:12 6,8 C 6,1 C 2,8 C 85 % 1034,2 hPa 0,0 l/m 0 min 0 min 58 W/m 9,7 km/h (2 Bft) 97,83 %
28.01.2022 16:14 6,7 C 6,1 C 2,8 C 86 % 1034,4 hPa 0,0 l/m 0 min 0 min 60 W/m 12,9 km/h (3 Bft) 100,00 %
28.01.2022 16:16 6,7 C 6,1 C 2,8 C 86 % 1034,4 hPa 0,0 l/m 0 min 0 min 60 W/m 12,9 km/h (3 Bft) 100,00 %
28.01.2022 16:18 6,7 C 6,1 C 2,8 C 86 % 1034,4 hPa 0,0 l/m 0 min 0 min 62 W/m 6,4 km/h (2 Bft) 100,00 %
28.01.2022 16:20 6,7 C 6,1 C 2,8 C 86 % 1034,4 hPa 0,0 l/m 0 min 0 min 60 W/m 6,4 km/h (2 Bft) 100,00 %
28.01.2022 16:22 6,6 C 6,1 C 2,8 C 86 % 1034,5 hPa 0,0 l/m 0 min 0 min 58 W/m 6,4 km/h (2 Bft) 100,00 %
28.01.2022 16:24 6,6 C 6,1 C 2,8 C 86 % 1034,4 hPa 0,0 l/m 0 min 0 min 58 W/m 6,4 km/h (2 Bft) 97,83 %
28.01.2022 16:26 6,6 C 6,1 C 2,8 C 86 % 1034,5 hPa 0,0 l/m 0 min 0 min 56 W/m 6,4 km/h (2 Bft) 100,00 %
28.01.2022 16:28 6,6 C 6,1 C 2,8 C 86 % 1034,5 hPa 0,0 l/m 0 min 0 min 54 W/m 6,4 km/h (2 Bft) 100,00 %
28.01.2022 16:30 6,6 C 6,1 C 2,8 C 86 % 1034,4 hPa 0,0 l/m 0 min 0 min 49 W/m 6,4 km/h (2 Bft) 100,00 %
28.01.2022 16:32 6,6 C 6,1 C 2,8 C 87 % 1034,5 hPa 0,0 l/m 0 min 0 min 46 W/m 12,9 km/h (3 Bft) 100,00 %
28.01.2022 16:34 6,6 C 6,1 C 2,8 C 87 % 1034,5 hPa 0,0 l/m 0 min 0 min 42 W/m 6,4 km/h (2 Bft) 100,00 %
28.01.2022 16:36 6,6 C 6,1 C 2,8 C 87 % 1034,5 hPa 0,0 l/m 0 min 0 min 39 W/m 9,7 km/h (2 Bft) 100,00 %
28.01.2022 16:38 6,5 C 6,1 C 2,8 C 87 % 1034,4 hPa 0,0 l/m 0 min 0 min 35 W/m 6,4 km/h (2 Bft) 100,00 %
28.01.2022 16:40 6,5 C 6,1 C 2,8 C 87 % 1034,4 hPa 0,0 l/m 0 min 0 min 33 W/m 6,4 km/h (2 Bft) 100,00 %
28.01.2022 16:42 6,5 C 6,1 C 2,8 C 87 % 1034,5 hPa 0,0 l/m 0 min 0 min 32 W/m 6,4 km/h (2 Bft) 97,87 %
28.01.2022 16:44 6,5 C 6,1 C 2,8 C 87 % 1034,5 hPa 0,0 l/m 0 min 0 min 28 W/m 6,4 km/h (2 Bft) 100,00 %
28.01.2022 16:46 6,5 C 5,6 C 2,8 C 87 % 1034,5 hPa 0,0 l/m 0 min 0 min 25 W/m 6,4 km/h (2 Bft) 97,87 %
28.01.2022 16:48 6,4 C 5,6 C 2,8 C 87 % 1034,5 hPa 0,0 l/m 0 min 0 min 21 W/m 16,1 km/h (3 Bft) 100,00 %
28.01.2022 16:50 6,4 C 5,6 C 2,8 C 87 % 1034,5 hPa 0,0 l/m 0 min 0 min 18 W/m 6,4 km/h (2 Bft) 100,00 %
28.01.2022 16:52 6,4 C 5,6 C 2,8 C 88 % 1034,5 hPa 0,0 l/m 0 min 0 min 16 W/m 6,4 km/h (2 Bft) 97,87 %
28.01.2022 16:54 6,4 C 5,6 C 2,8 C 88 % 1034,5 hPa 0,0 l/m 0 min 0 min 14 W/m 9,7 km/h (2 Bft) 97,87 %
28.01.2022 16:56 6,4 C 5,6 C 2,8 C 88 % 1034,5 hPa 0,0 l/m 0 min 0 min 14 W/m 6,4 km/h (2 Bft) 97,87 %
28.01.2022 16:58 6,3 C 5,6 C 2,8 C 88 % 1034,4 hPa 0,0 l/m 0 min 0 min 14 W/m 9,7 km/h (2 Bft) 95,74 %
28.01.2022 17:00 6,3 C 5,6 C 2,8 C 88 % 1034,5 hPa 0,0 l/m 0 min 0 min 12 W/m 6,4 km/h (2 Bft) 95,65 %
28.01.2022 17:02 6,3 C 5,6 C 2,8 C 88 % 1034,5 hPa 0,0 l/m 0 min 0 min 11 W/m 9,7 km/h (2 Bft) 97,87 %
28.01.2022 17:04 6,3 C 5,6 C 2,8 C 88 % 1034,5 hPa 0,0 l/m 0 min 0 min 9 W/m 16,1 km/h (3 Bft) 97,87 %
28.01.2022 17:06 6,2 C 5,6 C 2,2 C 89 % 1034,6 hPa 0,0 l/m 0 min 0 min 7 W/m 19,3 km/h (3 Bft) 97,87 %
28.01.2022 17:08 6,2 C 5,0 C 2,2 C 89 % 1034,5 hPa 0,0 l/m 0 min 0 min 6 W/m 16,1 km/h (3 Bft) 97,87 %
28.01.2022 17:10 6,1 C 5,0 C 2,2 C 89 % 1034,6 hPa 0,0 l/m 0 min 0 min 5 W/m 22,5 km/h (4 Bft) 97,87 %
28.01.2022 17:12 6,1 C 5,0 C 2,2 C 89 % 1034,5 hPa 0,0 l/m 0 min 0 min 1 W/m 16,1 km/h (3 Bft) 97,83 %
28.01.2022 17:14 6,0 C 5,0 C 2,2 C 89 % 1034,5 hPa 0,0 l/m 0 min 0 min 0 W/m 12,9 km/h (3 Bft) 97,87 %
28.01.2022 17:16 5,9 C 5,0 C 2,2 C 89 % 1034,5 hPa 0,0 l/m 0 min 0 min 0 W/m 6,4 km/h (2 Bft) 97,87 %
28.01.2022 17:18 5,9 C 5,0 C 2,2 C 89 % 1034,5 hPa 0,0 l/m 0 min 0 min 0 W/m 16,1 km/h (3 Bft) 95,74 %
28.01.2022 17:20 5,8 C 5,0 C 2,2 C 90 % 1034,4 hPa 0,0 l/m 0 min 0 min 0 W/m 12,9 km/h (3 Bft) 97,87 %
28.01.2022 17:22 5,8 C 5,0 C 2,2 C 90 % 1034,4 hPa 0,0 l/m 0 min 0 min 0 W/m 12,9 km/h (3 Bft) 97,87 %
28.01.2022 17:24 5,7 C 5,0 C 2,2 C 90 % 1034,3 hPa 0,0 l/m 0 min 0 min 0 W/m 12,9 km/h (3 Bft) 95,65 %
28.01.2022 17:26 5,7 C 5,0 C 2,2 C 90 % 1034,2 hPa 0,0 l/m 0 min 0 min 0 W/m 12,9 km/h (3 Bft) 91,49 %
28.01.2022 17:28 5,6 C 4,4 C 2,2 C 90 % 1034,2 hPa 0,0 l/m 0 min 0 min 0 W/m 19,3 km/h (3 Bft) 93,62 %
28.01.2022 17:30 5,6 C 4,4 C 1,7 C 91 % 1034,2 hPa 0,0 l/m 0 min 0 min 0 W/m 16,1 km/h (3 Bft) 93,62 %
28.01.2022 17:32 5,5 C 4,4 C 1,7 C 91 % 1034,2 hPa 0,0 l/m 0 min 0 min 0 W/m 29,0 km/h (5 Bft) 91,49 %
28.01.2022 17:34 5,4 C 4,4 C 1,7 C 91 % 1034,2 hPa 0,0 l/m 0 min 0 min 0 W/m 25,7 km/h (4 Bft) 95,65 %
28.01.2022 17:36 5,4 C 4,4 C 1,7 C 91 % 1034,2 hPa 0,0 l/m 0 min 0 min 0 W/m 22,5 km/h (4 Bft) 95,74 %
28.01.2022 17:38 5,3 C 4,4 C 1,7 C 91 % 1034,1 hPa 0,0 l/m 0 min 0 min 0 W/m 19,3 km/h (3 Bft) 95,74 %
28.01.2022 17:40 5,3 C 4,4 C 1,7 C 91 % 1034,1 hPa 0,0 l/m 0 min 0 min 0 W/m 22,5 km/h (4 Bft) 95,74 %
28.01.2022 17:42 5,3 C 4,4 C 1,7 C 91 % 1034,1 hPa 0,0 l/m 0 min 0 min 0 W/m 19,3 km/h (3 Bft) 93,62 %
28.01.2022 17:44 5,2 C 4,4 C 1,7 C 91 % 1034,1 hPa 0,0 l/m 0 min 0 min 0 W/m 22,5 km/h (4 Bft) 93,62 %
28.01.2022 17:46 5,2 C 4,4 C 1,7 C 92 % 1034,1 hPa 0,0 l/m 0 min 0 min 0 W/m 19,3 km/h (3 Bft) 93,48 %
28.01.2022 17:48 5,2 C 4,4 C 1,7 C 92 % 1034,2 hPa 0,0 l/m 0 min 0 min 0 W/m 16,1 km/h (3 Bft) 93,62 %
28.01.2022 17:50 5,2 C 4,4 C 1,7 C 92 % 1034,2 hPa 0,0 l/m 0 min 0 min 0 W/m 19,3 km/h (3 Bft) 95,74 %
28.01.2022 17:52 5,2 C 4,4 C 1,7 C 92 % 1034,2 hPa 0,0 l/m 0 min 0 min 0 W/m 19,3 km/h (3 Bft) 95,74 %
28.01.2022 17:54 5,2 C 4,4 C 1,7 C 92 % 1034,2 hPa 0,0 l/m 0 min 0 min 0 W/m 16,1 km/h (3 Bft) 95,74 %
28.01.2022 17:56 5,1 C 4,4 C 1,7 C 92 % 1034,2 hPa 0,0 l/m 0 min 0 min 0 W/m 9,7 km/h (2 Bft) 95,74 %
28.01.2022 17:58 5,1 C 4,4 C 1,7 C 92 % 1034,1 hPa 0,0 l/m 0 min 0 min 0 W/m 12,9 km/h (3 Bft) 95,65 %
28.01.2022 18:00 5,1 C 4,4 C 1,7 C 92 % 1034,1 hPa 0,0 l/m 0 min 0 min 0 W/m 16,1 km/h (3 Bft) 95,74 %
28.01.2022 18:02 5,1 C 4,4 C 1,7 C 92 % 1034,1 hPa 0,0 l/m 0 min 0 min 0 W/m 16,1 km/h (3 Bft) 95,74 %
28.01.2022 18:04 5,1 C 4,4 C 1,7 C 92 % 1034,1 hPa 0,0 l/m 0 min 0 min 0 W/m 19,3 km/h (3 Bft) 97,87 %
28.01.2022 18:08 5,1 C 4,4 C 1,7 C 93 % 1034,2 hPa 0,0 l/m 0 min 0 min 0 W/m 22,5 km/h (4 Bft) 96,84 %
28.01.2022 18:10 5,1 C 4,4 C 1,7 C 93 % 1034,1 hPa 0,0 l/m 0 min 0 min 0 W/m 16,1 km/h (3 Bft) 97,83 %
28.01.2022 18:12 5,1 C 4,4 C 1,7 C 93 % 1034,1 hPa 0,0 l/m 0 min 0 min 0 W/m 22,5 km/h (4 Bft) 97,87 %
28.01.2022 18:14 5,1 C 4,4 C 1,7 C 93 % 1034,2 hPa 0,0 l/m 0 min 0 min 0 W/m 9,7 km/h (2 Bft) 100,00 %
28.01.2022 18:16 5,1 C 4,4 C 1,7 C 93 % 1034,2 hPa 0,0 l/m 0 min 0 min 0 W/m 12,9 km/h (3 Bft) 100,00 %
28.01.2022 18:18 5,1 C 4,4 C 1,7 C 93 % 1034,3 hPa 0,0 l/m 0 min 0 min 0 W/m 19,3 km/h (3 Bft) 100,00 %
28.01.2022 18:20 5,1 C 4,4 C 1,7 C 93 % 1034,3 hPa 0,0 l/m 0 min 0 min 0 W/m 19,3 km/h (3 Bft) 97,87 %
28.01.2022 18:22 5,1 C 4,4 C 1,7 C 93 % 1034,3 hPa 0,0 l/m 0 min 0 min 0 W/m 12,9 km/h (3 Bft) 100,00 %
28.01.2022 18:24 5,1 C 4,4 C 1,7 C 93 % 1034,2 hPa 0,0 l/m 0 min 0 min 0 W/m 16,1 km/h (3 Bft) 100,00 %
28.01.2022 18:26 5,1 C 4,4 C 1,7 C 93 % 1034,3 hPa 0,0 l/m 0 min 0 min 0 W/m 6,4 km/h (2 Bft) 97,87 %
28.01.2022 18:28 5,1 C 4,4 C 1,7 C 93 % 1034,2 hPa 0,0 l/m 0 min 0 min 0 W/m 6,4 km/h (2 Bft) 100,00 %
28.01.2022 18:30 5,1 C 4,4 C 1,7 C 93 % 1034,2 hPa 0,0 l/m 0 min 0 min 0 W/m 9,7 km/h (2 Bft) 97,87 %
28.01.2022 18:32 5,1 C 4,4 C 1,7 C 93 % 1034,1 hPa 0,0 l/m 0 min 0 min 0 W/m 12,9 km/h (3 Bft) 100,00 %
28.01.2022 18:34 5,1 C 4,4 C 1,7 C 93 % 1034,1 hPa 0,0 l/m 0 min 0 min 0 W/m 12,9 km/h (3 Bft) 100,00 %
28.01.2022 18:36 5,1 C 4,4 C 1,7 C 93 % 1034,1 hPa 0,0 l/m 0 min 0 min 0 W/m 25,7 km/h (4 Bft) 100,00 %
28.01.2022 18:38 5,1 C 4,4 C 1,7 C 93 % 1034,0 hPa 0,0 l/m 0 min 0 min 0 W/m 12,9 km/h (3 Bft) 100,00 %
28.01.2022 18:40 5,1 C 4,4 C 1,7 C 93 % 1034,0 hPa 0,0 l/m 0 min 0 min 0 W/m 25,7 km/h (4 Bft) 100,00 %
28.01.2022 18:42 5,1 C 4,4 C 1,7 C 93 % 1033,9 hPa 0,0 l/m 0 min 0 min 0 W/m 19,3 km/h (3 Bft) 100,00 %
28.01.2022 18:44 5,1 C 4,4 C 1,7 C 93 % 1034,0 hPa 0,0 l/m 0 min 0 min 0 W/m 22,5 km/h (4 Bft) 97,83 %
28.01.2022 18:46 5,1 C 4,4 C 1,7 C 93 % 1034,0 hPa 0,0 l/m 0 min 0 min 0 W/m 16,1 km/h (3 Bft) 97,87 %
28.01.2022 18:48 5,1 C 4,4 C 1,7 C 93 % 1034,0 hPa 0,0 l/m 0 min 0 min 0 W/m 19,3 km/h (3 Bft) 100,00 %
28.01.2022 18:50 5,0 C 4,4 C 1,7 C 93 % 1034,0 hPa 0,0 l/m 0 min 0 min 0 W/m 22,5 km/h (4 Bft) 100,00 %
28.01.2022 18:52 5,0 C 4,4 C 1,7 C 93 % 1034,0 hPa 0,0 l/m 0 min 0 min 0 W/m 16,1 km/h (3 Bft) 100,00 %
28.01.2022 18:54 5,0 C 4,4 C 1,7 C 93 % 1034,0 hPa 0,0 l/m 0 min 0 min 0 W/m 22,5 km/h (4 Bft) 100,00 %
28.01.2022 18:56 5,0 C 4,4 C 1,7 C 93 % 1034,0 hPa 0,0 l/m 0 min 0 min 0 W/m 25,7 km/h (4 Bft) 100,00 %
28.01.2022 18:58 5,0 C 4,4 C 1,7 C 92 % 1033,9 hPa 0,0 l/m 0 min 0 min 0 W/m 16,1 km/h (3 Bft) 97,87 %
28.01.2022 19:00 5,0 C 4,4 C 1,7 C 92 % 1033,8 hPa 0,0 l/m 0 min 0 min 0 W/m 16,1 km/h (3 Bft) 100,00 %
28.01.2022 19:02 5,0 C 4,4 C 1,7 C 92 % 1033,8 hPa 0,0 l/m 0 min 0 min 0 W/m 19,3 km/h (3 Bft) 97,87 %
28.01.2022 19:04 5,0 C 4,4 C 1,7 C 92 % 1033,8 hPa 0,0 l/m 0 min 0 min 0 W/m 16,1 km/h (3 Bft) 100,00 %
28.01.2022 19:06 5,0 C 4,4 C 1,7 C 92 % 1033,8 hPa 0,0 l/m 0 min 0 min 0 W/m 12,9 km/h (3 Bft) 100,00 %
28.01.2022 19:08 5,0 C 4,4 C 1,7 C 92 % 1033,8 hPa 0,0 l/m 0 min 0 min 0 W/m 19,3 km/h (3 Bft) 100,00 %
28.01.2022 19:10 5,0 C 4,4 C 1,7 C 92 % 1033,7 hPa 0,0 l/m 0 min 0 min 0 W/m 16,1 km/h (3 Bft) 95,74 %
28.01.2022 19:12 5,0 C 4,4 C 1,7 C 92 % 1033,7 hPa 0,0 l/m 0 min 0 min 0 W/m 16,1 km/h (3 Bft) 100,00 %
28.01.2022 19:14 5,0 C 4,4 C 1,7 C 92 % 1033,7 hPa 0,0 l/m 0 min 0 min 0 W/m 12,9 km/h (3 Bft) 100,00 %
28.01.2022 19:16 5,0 C 4,4 C 1,7 C 92 % 1033,8 hPa 0,0 l/m 0 min 0 min 0 W/m 29,0 km/h (5 Bft) 100,00 %
28.01.2022 19:18 5,0 C 4,4 C 1,7 C 92 % 1033,8 hPa 0,0 l/m 0 min 0 min 0 W/m 19,3 km/h (3 Bft) 95,74 %
28.01.2022 19:20 4,9 C 4,4 C 1,7 C 92 % 1033,8 hPa 0,0 l/m 0 min 0 min 0 W/m 6,4 km/h (2 Bft) 97,83 %
28.01.2022 19:22 5,0 C 4,4 C 1,7 C 92 % 1033,8 hPa 0,0 l/m 0 min 0 min 0 W/m 22,5 km/h (4 Bft) 95,74 %
28.01.2022 19:24 4,9 C 4,4 C 1,7 C 93 % 1033,7 hPa 0,0 l/m 0 min 0 min 0 W/m 12,9 km/h (3 Bft) 95,74 %
28.01.2022 19:26 4,9 C 4,4 C 1,7 C 93 % 1033,7 hPa 0,0 l/m 0 min 0 min 0 W/m 12,9 km/h (3 Bft) 95,74 %
28.01.2022 19:28 4,9 C 4,4 C 1,7 C 93 % 1033,7 hPa 0,0 l/m 0 min 0 min 0 W/m 12,9 km/h (3 Bft) 95,74 %
28.01.2022 19:30 4,9 C 4,4 C 1,7 C 93 % 1033,6 hPa 0,0 l/m 0 min 0 min 0 W/m 19,3 km/h (3 Bft) 95,74 %
28.01.2022 19:32 4,9 C 4,4 C 1,7 C 93 % 1033,6 hPa 0,0 l/m 0 min 0 min 0 W/m 16,1 km/h (3 Bft) 95,65 %
28.01.2022 19:34 4,9 C 4,4 C 1,7 C 93 % 1033,6 hPa 0,0 l/m 0 min 0 min 0 W/m 19,3 km/h (3 Bft) 95,74 %
28.01.2022 19:36 4,9 C 4,4 C 1,7 C 93 % 1033,6 hPa 0,0 l/m 0 min 0 min 0 W/m 16,1 km/h (3 Bft) 95,74 %
28.01.2022 19:38 4,9 C 4,4 C 1,7 C 93 % 1033,6 hPa 0,0 l/m 0 min 0 min 0 W/m 19,3 km/h (3 Bft) 95,74 %
28.01.2022 19:40 4,9 C 4,4 C 1,7 C 93 % 1033,6 hPa 0,0 l/m 0 min 0 min 0 W/m 25,7 km/h (4 Bft) 95,74 %
28.01.2022 19:42 4,9 C 4,4 C 1,7 C 93 % 1033,6 hPa 0,0 l/m 0 min 0 min 0 W/m 19,3 km/h (3 Bft) 95,74 %
28.01.2022 19:44 4,9 C 4,4 C 1,7 C 93 % 1033,6 hPa 0,0 l/m 0 min 0 min 0 W/m 12,9 km/h (3 Bft) 95,65 %
28.01.2022 19:46 4,9 C 4,4 C 1,7 C 93 % 1033,6 hPa 0,0 l/m 0 min 0 min 0 W/m 22,5 km/h (4 Bft) 93,62 %
28.01.2022 19:48 4,9 C 4,4 C 1,7 C 93 % 1033,6 hPa 0,0 l/m 0 min 0 min 0 W/m 9,7 km/h (2 Bft) 95,74 %
28.01.2022 19:50 4,9 C 4,4 C 1,7 C 93 % 1033,6 hPa 0,0 l/m 0 min 0 min 0 W/m 6,4 km/h (2 Bft) 95,74 %
28.01.2022 19:52 4,9 C 4,4 C 1,7 C 93 % 1033,5 hPa 0,0 l/m 0 min 0 min 0 W/m 6,4 km/h (2 Bft) 95,74 %
28.01.2022 19:54 4,9 C 4,4 C 1,7 C 93 % 1033,4 hPa 0,0 l/m 0 min 0 min 0 W/m 12,9 km/h (3 Bft) 97,87 %
28.01.2022 19:56 4,9 C 4,4 C 1,7 C 93 % 1033,4 hPa 0,0 l/m 0 min 0 min 0 W/m 12,9 km/h (3 Bft) 97,83 %
28.01.2022 19:58 4,9 C 4,4 C 1,7 C 93 % 1033,4 hPa 0,0 l/m 0 min 0 min 0 W/m 12,9 km/h (3 Bft) 97,87 %
28.01.2022 20:00 4,9 C 4,4 C 1,7 C 93 % 1033,4 hPa 0,0 l/m 0 min 0 min 0 W/m 19,3 km/h (3 Bft) 97,87 %
28.01.2022 20:02 5,0 C 4,4 C 1,7 C 93 % 1033,4 hPa 0,0 l/m 0 min 0 min 0 W/m 22,5 km/h (4 Bft) 97,87 %
28.01.2022 20:04 5,0 C 4,4 C 1,7 C 93 % 1033,5 hPa 0,0 l/m 0 min 0 min 0 W/m 22,5 km/h (4 Bft) 65,96 %
28.01.2022 20:06 5,0 C 4,4 C 1,7 C 93 % 1033,4 hPa 0,0 l/m 0 min 0 min 0 W/m 19,3 km/h (3 Bft) 88,37 %
28.01.2022 20:08 5,0 C 4,4 C 1,7 C 93 % 1033,4 hPa 0,0 l/m 0 min 0 min 0 W/m 12,9 km/h (3 Bft) 100,00 %
28.01.2022 20:10 5,1 C 4,4 C 1,7 C 93 % 1033,4 hPa 0,0 l/m 0 min 0 min 0 W/m 16,1 km/h (3 Bft) 100,00 %
28.01.2022 20:12 5,1 C 4,4 C 1,7 C 93 % 1033,4 hPa 0,0 l/m 0 min 0 min 0 W/m 12,9 km/h (3 Bft) 100,00 %
28.01.2022 20:14 5,1 C 4,4 C 1,7 C 93 % 1033,4 hPa 0,0 l/m 0 min 0 min 0 W/m 9,7 km/h (2 Bft) 100,00 %
28.01.2022 20:16 5,1 C 4,4 C 1,7 C 93 % 1033,3 hPa 0,0 l/m 0 min 0 min 0 W/m 16,1 km/h (3 Bft) 100,00 %
28.01.2022 20:18 5,1 C 4,4 C 1,7 C 93 % 1033,3 hPa 0,0 l/m 0 min 0 min 0 W/m 9,7 km/h (2 Bft) 97,87 %
28.01.2022 20:20 5,1 C 4,4 C 1,7 C 93 % 1033,3 hPa 0,0 l/m 0 min 0 min 0 W/m 19,3 km/h (3 Bft) 97,83 %
28.01.2022 20:22 5,1 C 4,4 C 1,7 C 93 % 1033,2 hPa 0,0 l/m 0 min 0 min 0 W/m 19,3 km/h (3 Bft) 97,87 %
28.01.2022 20:24 5,1 C 4,4 C 2,2 C 93 % 1033,2 hPa 0,0 l/m 0 min 0 min 0 W/m 16,1 km/h (3 Bft) 100,00 %
28.01.2022 20:26 5,1 C 4,4 C 2,2 C 93 % 1033,1 hPa 0,0 l/m 0 min 0 min 0 W/m 19,3 km/h (3 Bft) 97,87 %
28.01.2022 20:28 5,1 C 4,4 C 2,2 C 93 % 1033,1 hPa 0,0 l/m 0 min 0 min 0 W/m 22,5 km/h (4 Bft) 97,87 %
28.01.2022 20:30 5,1 C 4,4 C 2,2 C 93 % 1033,0 hPa 0,0 l/m 0 min 0 min 0 W/m 22,5 km/h (4 Bft) 97,83 %
28.01.2022 20:32 5,1 C 4,4 C 2,2 C 93 % 1032,9 hPa 0,0 l/m 0 min 0 min 0 W/m 16,1 km/h (3 Bft) 97,87 %
28.01.2022 20:34 5,1 C 4,4 C 2,2 C 93 % 1033,1 hPa 0,0 l/m 0 min 0 min 0 W/m 25,7 km/h (4 Bft) 97,87 %
28.01.2022 20:36 5,1 C 4,4 C 2,2 C 93 % 1033,1 hPa 0,0 l/m 0 min 0 min 0 W/m 19,3 km/h (3 Bft) 95,74 %
28.01.2022 20:38 5,1 C 4,4 C 2,2 C 93 % 1033,1 hPa 0,0 l/m 0 min 0 min 0 W/m 16,1 km/h (3 Bft) 97,87 %
28.01.2022 20:40 5,1 C 4,4 C 2,2 C 93 % 1033,0 hPa 0,0 l/m 0 min 0 min 0 W/m 19,3 km/h (3 Bft) 97,87 %
28.01.2022 20:42 5,1 C 4,4 C 2,2 C 93 % 1032,9 hPa 0,0 l/m 0 min 0 min 0 W/m 12,9 km/h (3 Bft) 97,83 %
28.01.2022 20:44 5,1 C 4,4 C 2,2 C 93 % 1032,9 hPa 0,0 l/m 0 min 0 min 0 W/m 12,9 km/h (3 Bft) 97,87 %
28.01.2022 20:46 5,1 C 4,4 C 2,2 C 93 % 1032,9 hPa 0,0 l/m 0 min 0 min 0 W/m 16,1 km/h (3 Bft) 95,74 %
28.01.2022 20:48 5,1 C 4,4 C 2,2 C 93 % 1033,0 hPa 0,0 l/m 0 min 0 min 0 W/m 12,9 km/h (3 Bft) 97,87 %
28.01.2022 20:50 5,1 C 4,4 C 2,2 C 93 % 1033,0 hPa 0,0 l/m 0 min 0 min 0 W/m 19,3 km/h (3 Bft) 97,87 %
28.01.2022 20:52 5,1 C 4,4 C 2,2 C 93 % 1033,0 hPa 0,0 l/m 0 min 0 min 0 W/m 12,9 km/h (3 Bft) 95,74 %
28.01.2022 20:54 5,1 C 4,4 C 1,7 C 93 % 1033,1 hPa 0,0 l/m 0 min 0 min 0 W/m 12,9 km/h (3 Bft) 97,83 %
28.01.2022 20:56 5,1 C 4,4 C 2,2 C 93 % 1033,0 hPa 0,0 l/m 0 min 0 min 0 W/m 19,3 km/h (3 Bft) 97,87 %
28.01.2022 20:58 5,1 C 4,4 C 2,2 C 93 % 1032,9 hPa 0,0 l/m 0 min 0 min 0 W/m 16,1 km/h (3 Bft) 97,87 %
28.01.2022 21:00 5,2 C 4,4 C 2,2 C 93 % 1032,9 hPa 0,0 l/m 0 min 0 min 0 W/m 12,9 km/h (3 Bft) 97,87 %
28.01.2022 21:02 5,2 C 4,4 C 2,2 C 93 % 1032,9 hPa 0,0 l/m 0 min 0 min 0 W/m 12,9 km/h (3 Bft) 97,87 %
28.01.2022 21:04 5,2 C 4,4 C 2,2 C 93 % 1032,8 hPa 0,0 l/m 0 min 0 min 0 W/m 19,3 km/h (3 Bft) 95,74 %
28.01.2022 21:06 5,2 C 4,4 C 2,2 C 93 % 1032,8 hPa 0,0 l/m 0 min 0 min 0 W/m 19,3 km/h (3 Bft) 97,83 %
28.01.2022 21:08 5,2 C 4,4 C 2,2 C 93 % 1032,8 hPa 0,0 l/m 0 min 0 min 0 W/m 16,1 km/h (3 Bft) 97,87 %
28.01.2022 21:10 5,2 C 4,4 C 2,2 C 93 % 1032,8 hPa 0,0 l/m 0 min 0 min 0 W/m 12,9 km/h (3 Bft) 97,87 %
28.01.2022 21:12 5,2 C 4,4 C 2,2 C 93 % 1032,9 hPa 0,0 l/m 0 min 0 min 0 W/m 22,5 km/h (4 Bft) 97,87 %
28.01.2022 21:14 5,2 C 4,4 C 2,2 C 93 % 1032,8 hPa 0,0 l/m 0 min 0 min 0 W/m 12,9 km/h (3 Bft) 100,00 %
28.01.2022 21:16 5,2 C 4,4 C 2,2 C 93 % 1032,8 hPa 0,0 l/m 0 min 0 min 0 W/m 19,3 km/h (3 Bft) 100,00 %
28.01.2022 21:18 5,2 C 4,4 C 2,2 C 93 % 1032,9 hPa 0,0 l/m 0 min 0 min 0 W/m 19,3 km/h (3 Bft) 100,00 %
28.01.2022 21:20 5,2 C 4,4 C 2,2 C 93 % 1032,9 hPa 0,0 l/m 0 min 0 min 0 W/m 22,5 km/h (4 Bft) 95,74 %
28.01.2022 21:22 5,3 C 4,4 C 2,2 C 93 % 1033,0 hPa 0,0 l/m 0 min 0 min 0 W/m 16,1 km/h (3 Bft) 95,74 %
28.01.2022 21:24 5,2 C 4,4 C 2,2 C 93 % 1033,1 hPa 0,0 l/m 0 min 0 min 0 W/m 16,1 km/h (3 Bft) 95,74 %
28.01.2022 21:26 5,3 C 4,4 C 2,2 C 93 % 1033,2 hPa 0,0 l/m 0 min 0 min 0 W/m 16,1 km/h (3 Bft) 97,87 %
28.01.2022 21:28 5,3 C 4,4 C 2,2 C 93 % 1033,2 hPa 0,0 l/m 0 min 0 min 0 W/m 12,9 km/h (3 Bft) 95,74 %
28.01.2022 21:30 5,3 C 5,0 C 2,2 C 93 % 1033,1 hPa 0,0 l/m 0 min 0 min 0 W/m 22,5 km/h (4 Bft) 97,83 %
28.01.2022 21:32 5,3 C 5,0 C 2,2 C 93 % 1033,1 hPa 0,0 l/m 0 min 0 min 0 W/m 19,3 km/h (3 Bft) 97,87 %
28.01.2022 21:34 5,3 C 5,0 C 2,2 C 93 % 1033,1 hPa 0,0 l/m 0 min 0 min 0 W/m 19,3 km/h (3 Bft) 95,74 %
28.01.2022 21:36 5,3 C 5,0 C 2,2 C 93 % 1033,0 hPa 0,0 l/m 0 min 0 min 0 W/m 9,7 km/h (2 Bft) 95,74 %
28.01.2022 21:38 5,3 C 5,0 C 2,2 C 93 % 1032,9 hPa 0,0 l/m 0 min 0 min 0 W/m 12,9 km/h (3 Bft) 97,87 %
28.01.2022 21:40 5,3 C 5,0 C 2,2 C 93 % 1033,0 hPa 0,0 l/m 0 min 0 min 0 W/m 16,1 km/h (3 Bft) 97,87 %
28.01.2022 21:42 5,3 C 5,0 C 2,2 C 93 % 1032,9 hPa 0,0 l/m 0 min 0 min 0 W/m 19,3 km/h (3 Bft) 97,83 %
28.01.2022 21:44 5,3 C 5,0 C 2,2 C 93 % 1033,0 hPa 0,0 l/m 0 min 0 min 0 W/m 19,3 km/h (3 Bft) 97,87 %
28.01.2022 21:46 5,3 C 5,0 C 2,2 C 93 % 1032,9 hPa 0,0 l/m 0 min 0 min 0 W/m 12,9 km/h (3 Bft) 95,74 %
28.01.2022 21:48 5,3 C 5,0 C 2,2 C 93 % 1032,9 hPa 0,0 l/m 0 min 0 min 0 W/m 19,3 km/h (3 Bft) 97,87 %
28.01.2022 21:50 5,3 C 5,0 C 2,2 C 93 % 1032,8 hPa 0,0 l/m 0 min 0 min 0 W/m 19,3 km/h (3 Bft) 100,00 %
28.01.2022 21:52 5,3 C 5,0 C 2,2 C 93 % 1032,8 hPa 0,0 l/m 0 min 0 min 0 W/m 16,1 km/h (3 Bft) 100,00 %
28.01.2022 21:54 5,3 C 5,0 C 2,2 C 93 % 1032,8 hPa 0,0 l/m 0 min 0 min 0 W/m 22,5 km/h (4 Bft) 97,83 %
28.01.2022 21:56 5,3 C 5,0 C 2,2 C 93 % 1032,8 hPa 0,0 l/m 0 min 0 min 0 W/m 16,1 km/h (3 Bft) 97,87 %
28.01.2022 21:58 5,3 C 5,0 C 2,2 C 93 % 1032,7 hPa 0,0 l/m 0 min 0 min 0 W/m 19,3 km/h (3 Bft) 97,87 %
28.01.2022 22:00 5,3 C 5,0 C 2,2 C 93 % 1032,6 hPa 0,0 l/m 0 min 0 min 0 W/m 19,3 km/h (3 Bft) 93,62 %
28.01.2022 22:02 5,3 C 5,0 C 2,2 C 93 % 1032,6 hPa 0,0 l/m 0 min 0 min 0 W/m 22,5 km/h (4 Bft) 95,74 %
28.01.2022 22:04 5,3 C 5,0 C 2,2 C 93 % 1032,5 hPa 0,0 l/m 0 min 0 min 0 W/m 19,3 km/h (3 Bft) 97,87 %
28.01.2022 22:06 5,3 C 5,0 C 2,2 C 93 % 1032,6 hPa 0,0 l/m 0 min 0 min 0 W/m 29,0 km/h (5 Bft) 97,83 %
28.01.2022 22:08 5,3 C 5,0 C 2,2 C 93 % 1032,5 hPa 0,0 l/m 0 min 0 min 0 W/m 25,7 km/h (4 Bft) 97,87 %
28.01.2022 22:10 5,3 C 5,0 C 2,2 C 93 % 1032,6 hPa 0,0 l/m 0 min 0 min 0 W/m 38,6 km/h (5 Bft) 95,74 %
28.01.2022 22:12 5,3 C 5,0 C 2,2 C 93 % 1032,5 hPa 0,0 l/m 0 min 0 min 0 W/m 16,1 km/h (3 Bft) 97,87 %
28.01.2022 22:14 5,4 C 5,0 C 2,2 C 93 % 1032,6 hPa 0,0 l/m 0 min 0 min 0 W/m 25,7 km/h (4 Bft) 97,87 %
28.01.2022 22:16 5,3 C 5,0 C 2,2 C 93 % 1032,6 hPa 0,0 l/m 0 min 0 min 0 W/m 16,1 km/h (3 Bft) 97,87 %
28.01.2022 22:18 5,4 C 5,0 C 2,2 C 93 % 1032,5 hPa 0,0 l/m 0 min 0 min 0 W/m 32,2 km/h (5 Bft) 97,83 %
28.01.2022 22:20 5,3 C 5,0 C 2,2 C 93 % 1032,5 hPa 0,0 l/m 0 min 0 min 0 W/m 19,3 km/h (3 Bft) 97,87 %
28.01.2022 22:22 5,4 C 5,0 C 2,2 C 93 % 1032,5 hPa 0,0 l/m 0 min 0 min 0 W/m 32,2 km/h (5 Bft) 97,87 %
28.01.2022 22:24 5,4 C 5,0 C 2,2 C 93 % 1032,3 hPa 0,0 l/m 0 min 0 min 0 W/m 19,3 km/h (3 Bft) 97,87 %
28.01.2022 22:26 5,4 C 5,0 C 2,2 C 93 % 1032,3 hPa 0,0 l/m 0 min 0 min 0 W/m 38,6 km/h (5 Bft) 95,74 %
28.01.2022 22:28 5,4 C 5,0 C 2,2 C 93 % 1032,3 hPa 0,0 l/m 0 min 0 min 0 W/m 32,2 km/h (5 Bft) 97,87 %
28.01.2022 22:30 5,4 C 5,0 C 2,2 C 93 % 1032,3 hPa 0,0 l/m 0 min 0 min 0 W/m 22,5 km/h (4 Bft) 97,87 %
28.01.2022 22:32 5,4 C 5,0 C 2,2 C 93 % 1032,2 hPa 0,0 l/m 0 min 0 min 0 W/m 16,1 km/h (3 Bft) 93,62 %
28.01.2022 22:34 5,4 C 5,0 C 2,2 C 93 % 1032,1 hPa 0,0 l/m 0 min 0 min 0 W/m 25,7 km/h (4 Bft) 97,87 %
28.01.2022 22:36 5,4 C 5,0 C 2,2 C 93 % 1032,2 hPa 0,0 l/m 0 min 0 min 0 W/m 22,5 km/h (4 Bft) 95,74 %
28.01.2022 22:38 5,3 C 5,0 C 2,2 C 93 % 1032,1 hPa 0,0 l/m 0 min 0 min 0 W/m 22,5 km/h (4 Bft) 100,00 %
28.01.2022 22:40 5,3 C 5,0 C 2,2 C 93 % 1032,2 hPa 0,0 l/m 0 min 0 min 0 W/m 29,0 km/h (5 Bft) 100,00 %
28.01.2022 22:42 5,3 C 5,0 C 2,2 C 93 % 1032,2 hPa 0,0 l/m 0 min 0 min 0 W/m 25,7 km/h (4 Bft) 100,00 %
28.01.2022 22:44 5,3 C 5,0 C 2,2 C 93 % 1032,3 hPa 0,0 l/m 0 min 0 min 0 W/m 25,7 km/h (4 Bft) 100,00 %
28.01.2022 22:46 5,3 C 5,0 C 2,2 C 93 % 1032,3 hPa 0,0 l/m 0 min 0 min 0 W/m 22,5 km/h (4 Bft) 95,74 %
28.01.2022 22:48 5,3 C 5,0 C 2,2 C 93 % 1032,2 hPa 0,0 l/m 0 min 0 min 0 W/m 32,2 km/h (5 Bft) 95,74 %
28.01.2022 22:50 5,3 C 5,0 C 2,2 C 93 % 1032,2 hPa 0,0 l/m 0 min 0 min 0 W/m 16,1 km/h (3 Bft) 100,00 %
28.01.2022 22:52 5,3 C 5,0 C 2,2 C 93 % 1032,2 hPa 0,0 l/m 0 min 0 min 0 W/m 16,1 km/h (3 Bft) 100,00 %
28.01.2022 22:54 5,3 C 5,0 C 2,2 C 93 % 1032,3 hPa 0,0 l/m 0 min 0 min 0 W/m 16,1 km/h (3 Bft) 100,00 %
28.01.2022 22:56 5,3 C 5,0 C 2,2 C 93 % 1032,3 hPa 0,0 l/m 0 min 0 min 0 W/m 12,9 km/h (3 Bft) 100,00 %
28.01.2022 22:58 5,3 C 5,0 C 2,2 C 93 % 1032,2 hPa 0,0 l/m 0 min 0 min 0 W/m 16,1 km/h (3 Bft) 100,00 %
28.01.2022 23:00 5,3 C 5,0 C 2,2 C 93 % 1032,3 hPa 0,0 l/m 0 min 0 min 0 W/m 16,1 km/h (3 Bft) 100,00 %
28.01.2022 23:02 5,3 C 5,0 C 2,2 C 93 % 1032,3 hPa 0,0 l/m 0 min 0 min 0 W/m 9,7 km/h (2 Bft) 100,00 %
28.01.2022 23:04 5,3 C 5,0 C 2,2 C 93 % 1032,3 hPa 0,0 l/m 0 min 0 min 0 W/m 19,3 km/h (3 Bft) 97,83 %
28.01.2022 23:06 5,3 C 5,0 C 2,2 C 93 % 1032,2 hPa 0,0 l/m 0 min 0 min 0 W/m 16,1 km/h (3 Bft) 100,00 %
28.01.2022 23:08 5,3 C 5,0 C 2,2 C 93 % 1032,2 hPa 0,0 l/m 0 min 0 min 0 W/m 12,9 km/h (3 Bft) 100,00 %
28.01.2022 23:10 5,3 C 5,0 C 2,2 C 93 % 1032,2 hPa 0,0 l/m 0 min 0 min 0 W/m 22,5 km/h (4 Bft) 100,00 %
28.01.2022 23:12 5,3 C 5,0 C 2,2 C 93 % 1032,1 hPa 0,0 l/m 0 min 0 min 0 W/m 22,5 km/h (4 Bft) 100,00 %
28.01.2022 23:14 5,3 C 5,0 C 2,2 C 93 % 1032,3 hPa 0,0 l/m 0 min 0 min 0 W/m 25,7 km/h (4 Bft) 95,74 %
28.01.2022 23:16 5,3 C 5,0 C 2,2 C 93 % 1032,1 hPa 0,0 l/m 0 min 0 min 0 W/m 22,5 km/h (4 Bft) 95,65 %
28.01.2022 23:18 5,3 C 5,0 C 2,2 C 93 % 1032,1 hPa 0,0 l/m 0 min 0 min 0 W/m 16,1 km/h (3 Bft) 95,74 %
28.01.2022 23:20 5,3 C 5,0 C 2,2 C 93 % 1032,1 hPa 0,0 l/m 0 min 0 min 0 W/m 25,7 km/h (4 Bft) 98,00 %
28.01.2022 23:22 5,3 C 5,0 C 2,2 C 93 % 1032,1 hPa 0,0 l/m 0 min 0 min 0 W/m 22,5 km/h (4 Bft) 93,62 %
28.01.2022 23:24 5,3 C 5,0 C 2,2 C 93 % 1032,0 hPa 0,0 l/m 0 min 0 min 0 W/m 22,5 km/h (4 Bft) 95,74 %
28.01.2022 23:26 5,3 C 5,0 C 2,2 C 93 % 1032,0 hPa 0,0 l/m 0 min 0 min 0 W/m 25,7 km/h (4 Bft) 95,65 %
28.01.2022 23:28 5,3 C 5,0 C 2,2 C 93 % 1032,0 hPa 0,0 l/m 0 min 0 min 0 W/m 22,5 km/h (4 Bft) 93,62 %
28.01.2022 23:30 5,3 C 5,0 C 2,2 C 93 % 1031,9 hPa 0,0 l/m 0 min 0 min 0 W/m 32,2 km/h (5 Bft) 95,74 %
28.01.2022 23:32 5,4 C 5,0 C 2,2 C 93 % 1031,9 hPa 0,0 l/m 0 min 0 min 0 W/m 25,7 km/h (4 Bft) 94,44 %
28.01.2022 23:34 5,4 C 5,0 C 2,2 C 93 % 1031,8 hPa 0,0 l/m 0 min 0 min 0 W/m 25,7 km/h (4 Bft) 95,74 %
28.01.2022 23:36 5,4 C 5,0 C 2,2 C 92 % 1031,8 hPa 0,0 l/m 0 min 0 min 0 W/m 22,5 km/h (4 Bft) 95,65 %
28.01.2022 23:38 5,4 C 5,0 C 2,2 C 92 % 1031,8 hPa 0,0 l/m 0 min 0 min 0 W/m 22,5 km/h (4 Bft) 95,74 %
28.01.2022 23:40 5,4 C 5,0 C 2,2 C 92 % 1031,8 hPa 0,0 l/m 0 min 0 min 0 W/m 16,1 km/h (3 Bft) 95,74 %
28.01.2022 23:42 5,4 C 5,0 C 2,2 C 92 % 1031,9 hPa 0,0 l/m 0 min 0 min 0 W/m 25,7 km/h (4 Bft) 95,74 %
28.01.2022 23:44 5,4 C 5,0 C 2,2 C 92 % 1031,8 hPa 0,0 l/m 0 min 0 min 0 W/m 19,3 km/h (3 Bft) 95,74 %
28.01.2022 23:46 5,4 C 5,0 C 2,2 C 92 % 1031,7 hPa 0,0 l/m 0 min 0 min 0 W/m 19,3 km/h (3 Bft) 95,65 %
28.01.2022 23:48 5,4 C 5,0 C 2,2 C 92 % 1031,7 hPa 0,0 l/m 0 min 0 min 0 W/m 16,1 km/h (3 Bft) 97,87 %
28.01.2022 23:50 5,4 C 5,0 C 2,2 C 92 % 1031,7 hPa 0,0 l/m 0 min 0 min 0 W/m 12,9 km/h (3 Bft) 95,74 %
28.01.2022 23:52 5,4 C 5,0 C 2,2 C 92 % 1031,6 hPa 0,0 l/m 0 min 0 min 0 W/m 12,9 km/h (3 Bft) 95,74 %
28.01.2022 23:54 5,4 C 5,0 C 2,2 C 92 % 1031,5 hPa 0,0 l/m 0 min 0 min 0 W/m 16,1 km/h (3 Bft) 97,87 %
28.01.2022 23:56 5,4 C 5,0 C 2,2 C 92 % 1031,5 hPa 0,0 l/m 0 min 0 min 0 W/m 22,5 km/h (4 Bft) 97,87 %
28.01.2022 23:58 5,4 C 5,0 C 2,2 C 92 % 1031,6 hPa 0,0 l/m 0 min 0 min 0 W/m 25,7 km/h (4 Bft) 93,48 %
_ Min-Zeit 07:20 07:14 07:16 13:26 00:02 - - - - 06:44 04:40
Minimum _ 2,7 C 1,7 C 0,0 C 80 % 1028,3 hPa - - - - 0,0 km/h (0 Bft) 55,56 %
_ Max-Zeit 13:24 13:18 12:34 09:56 12:10 00:00 09:48 00:00 13:22 22:10 00:00
Maximum _ 8,2 C 16,7 C 5,0 C 97 % 1035,6 hPa 0,0 l/m 2 min 0 min 468 W/m 38,6 km/h
SW (5 Bft)
100,00 %
Durchschnitt _ 4,9 C 4,9 C 2,1 C 92 % 1033,0 hPa #0,0 l/m #3:07 h #0 min. 132 W/m 11,9 km/h (2 Bft) 97,45 %
© 2022 W. Hausmann